Wetterdaten: Montag, 10.03.2014
Datum Zeit Temp. Aussen +5cm Feuchte Auss Luftdruck Regen Sonnenschein Regendauer UV Solar Windben
10.03.2014 00:00 10,1 C 7,2 C 62 % 1025,8 hPa 0,0 l/m 0 min 0 min 0,0 UV-I 0 W/m 5,1 km/h (1 Bft)
10.03.2014 00:02 10,1 C 7,2 C 62 % 1025,8 hPa 0,0 l/m 0 min 0 min 0,0 UV-I 0 W/m 10,3 km/h (2 Bft)
10.03.2014 00:06 10,1 C 7,2 C 63 % 1025,8 hPa 0,0 l/m 0 min 0 min 0,0 UV-I 0 W/m 10,3 km/h (2 Bft)
10.03.2014 00:08 10,0 C 7,2 C 63 % 1025,8 hPa 0,0 l/m 0 min 0 min 0,0 UV-I 0 W/m 5,1 km/h (1 Bft)
10.03.2014 00:10 10,0 C 7,2 C 63 % 1025,8 hPa 0,0 l/m 0 min 0 min 0,0 UV-I 0 W/m 12,9 km/h (3 Bft)
10.03.2014 00:12 10,0 C 7,2 C 63 % 1025,9 hPa 0,0 l/m 0 min 0 min 0,0 UV-I 0 W/m 12,9 km/h (3 Bft)
10.03.2014 00:14 10,1 C 7,2 C 63 % 1025,9 hPa 0,0 l/m 0 min 0 min 0,0 UV-I 0 W/m 12,9 km/h (3 Bft)
10.03.2014 00:16 10,0 C 7,2 C 63 % 1025,9 hPa 0,0 l/m 0 min 0 min 0,0 UV-I 0 W/m 7,7 km/h (2 Bft)
10.03.2014 00:18 10,0 C 7,2 C 63 % 1026,0 hPa 0,0 l/m 0 min 0 min 0,0 UV-I 0 W/m 10,3 km/h (2 Bft)
10.03.2014 00:20 9,9 C 7,2 C 63 % 1025,9 hPa 0,0 l/m 0 min 0 min 0,0 UV-I 0 W/m 7,7 km/h (2 Bft)
10.03.2014 00:22 9,9 C 7,2 C 63 % 1025,9 hPa 0,0 l/m 0 min 0 min 0,0 UV-I 0 W/m 12,9 km/h (3 Bft)
10.03.2014 00:24 9,9 C 7,2 C 63 % 1025,9 hPa 0,0 l/m 0 min 0 min 0,0 UV-I 0 W/m 10,3 km/h (2 Bft)
10.03.2014 00:26 9,9 C 7,2 C 63 % 1025,9 hPa 0,0 l/m 0 min 0 min 0,0 UV-I 0 W/m 12,9 km/h (3 Bft)
10.03.2014 00:28 9,9 C 7,2 C 63 % 1025,8 hPa 0,0 l/m 0 min 0 min 0,0 UV-I 0 W/m 18,0 km/h (3 Bft)
10.03.2014 00:30 10,0 C 7,2 C 63 % 1025,9 hPa 0,0 l/m 0 min 0 min 0,0 UV-I 0 W/m 12,9 km/h (3 Bft)
10.03.2014 00:32 10,0 C 7,2 C 62 % 1025,9 hPa 0,0 l/m 0 min 0 min 0,0 UV-I 0 W/m 18,0 km/h (3 Bft)
10.03.2014 00:34 10,0 C 7,2 C 62 % 1025,9 hPa 0,0 l/m 0 min 0 min 0,0 UV-I 0 W/m 12,9 km/h (3 Bft)
10.03.2014 00:36 10,0 C 7,2 C 62 % 1025,9 hPa 0,0 l/m 0 min 0 min 0,0 UV-I 0 W/m 12,9 km/h (3 Bft)
10.03.2014 00:38 10,1 C 7,2 C 62 % 1025,9 hPa 0,0 l/m 0 min 0 min 0,0 UV-I 0 W/m 15,4 km/h (3 Bft)
10.03.2014 00:40 10,1 C 7,2 C 62 % 1025,9 hPa 0,0 l/m 0 min 0 min 0,0 UV-I 0 W/m 15,4 km/h (3 Bft)
10.03.2014 00:42 10,1 C 7,2 C 62 % 1025,9 hPa 0,0 l/m 0 min 0 min 0,0 UV-I 0 W/m 12,9 km/h (3 Bft)
10.03.2014 00:44 10,1 C 7,2 C 62 % 1025,9 hPa 0,0 l/m 0 min 0 min 0,0 UV-I 0 W/m 18,0 km/h (3 Bft)
10.03.2014 00:46 10,1 C 7,2 C 62 % 1025,8 hPa 0,0 l/m 0 min 0 min 0,0 UV-I 0 W/m 15,4 km/h (3 Bft)
10.03.2014 00:48 10,1 C 7,2 C 62 % 1025,9 hPa 0,0 l/m 0 min 0 min 0,0 UV-I 0 W/m 20,6 km/h (4 Bft)
10.03.2014 00:50 10,1 C 7,2 C 62 % 1025,9 hPa 0,0 l/m 0 min 0 min 0,0 UV-I 0 W/m 15,4 km/h (3 Bft)
10.03.2014 00:52 10,1 C 7,2 C 62 % 1025,8 hPa 0,0 l/m 0 min 0 min 0,0 UV-I 0 W/m 12,9 km/h (3 Bft)
10.03.2014 00:54 10,1 C 7,8 C 62 % 1025,8 hPa 0,0 l/m 0 min 0 min 0,0 UV-I 0 W/m 18,0 km/h (3 Bft)
10.03.2014 00:56 10,0 C 7,8 C 62 % 1025,7 hPa 0,0 l/m 0 min 0 min 0,0 UV-I 0 W/m 12,9 km/h (3 Bft)
10.03.2014 00:58 10,0 C 7,2 C 62 % 1025,8 hPa 0,0 l/m 0 min 0 min 0,0 UV-I 0 W/m 18,0 km/h (3 Bft)
10.03.2014 01:00 9,9 C 7,2 C 62 % 1025,7 hPa 0,0 l/m 0 min 0 min 0,0 UV-I 0 W/m 15,4 km/h (3 Bft)
10.03.2014 01:02 9,9 C 7,8 C 62 % 1025,8 hPa 0,0 l/m 0 min 0 min 0,0 UV-I 0 W/m 15,4 km/h (3 Bft)
10.03.2014 01:04 9,9 C 7,8 C 62 % 1025,8 hPa 0,0 l/m 0 min 0 min 0,0 UV-I 0 W/m 12,9 km/h (3 Bft)
10.03.2014 01:06 9,9 C 7,2 C 62 % 1025,7 hPa 0,0 l/m 0 min 0 min 0,0 UV-I 0 W/m 15,4 km/h (3 Bft)
10.03.2014 01:08 9,9 C 7,2 C 62 % 1025,7 hPa 0,0 l/m 0 min 0 min 0,0 UV-I 0 W/m 18,0 km/h (3 Bft)
10.03.2014 01:10 9,9 C 7,2 C 62 % 1025,8 hPa 0,0 l/m 0 min 0 min 0,0 UV-I 0 W/m 15,4 km/h (3 Bft)
10.03.2014 01:12 9,9 C 7,2 C 62 % 1025,8 hPa 0,0 l/m 0 min 0 min 0,0 UV-I 0 W/m 18,0 km/h (3 Bft)
10.03.2014 01:14 9,8 C 7,2 C 62 % 1025,7 hPa 0,0 l/m 0 min 0 min 0,0 UV-I 0 W/m 18,0 km/h (3 Bft)
10.03.2014 01:16 9,8 C 7,2 C 62 % 1025,7 hPa 0,0 l/m 0 min 0 min 0,0 UV-I 0 W/m 15,4 km/h (3 Bft)
10.03.2014 01:18 9,8 C 7,2 C 62 % 1025,7 hPa 0,0 l/m 0 min 0 min 0,0 UV-I 0 W/m 18,0 km/h (3 Bft)
10.03.2014 01:20 9,8 C 7,2 C 62 % 1025,7 hPa 0,0 l/m 0 min 0 min 0,0 UV-I 0 W/m 15,4 km/h (3 Bft)
10.03.2014 01:22 9,7 C 7,2 C 62 % 1025,6 hPa 0,0 l/m 0 min 0 min 0,0 UV-I 0 W/m 18,0 km/h (3 Bft)
10.03.2014 01:24 9,7 C 7,2 C 62 % 1025,6 hPa 0,0 l/m 0 min 0 min 0,0 UV-I 0 W/m 18,0 km/h (3 Bft)
10.03.2014 01:26 9,7 C 7,2 C 62 % 1025,6 hPa 0,0 l/m 0 min 0 min 0,0 UV-I 0 W/m 12,9 km/h (3 Bft)
10.03.2014 01:28 9,7 C 7,2 C 62 % 1025,6 hPa 0,0 l/m 0 min 0 min 0,0 UV-I 0 W/m 15,4 km/h (3 Bft)
10.03.2014 01:30 9,6 C 7,2 C 62 % 1025,6 hPa 0,0 l/m 0 min 0 min 0,0 UV-I 0 W/m 10,3 km/h (2 Bft)
10.03.2014 01:32 9,5 C 6,7 C 63 % 1025,6 hPa 0,0 l/m 0 min 0 min 0,0 UV-I 0 W/m 12,9 km/h (3 Bft)
10.03.2014 01:34 9,4 C 6,7 C 63 % 1025,6 hPa 0,0 l/m 0 min 0 min 0,0 UV-I 0 W/m 2,6 km/h (1 Bft)
10.03.2014 01:36 9,4 C 6,7 C 63 % 1025,6 hPa 0,0 l/m 0 min 0 min 0,0 UV-I 0 W/m 10,3 km/h (2 Bft)
10.03.2014 01:38 9,3 C 6,7 C 63 % 1025,6 hPa 0,0 l/m 0 min 0 min 0,0 UV-I 0 W/m 10,3 km/h (2 Bft)
10.03.2014 01:40 9,3 C 6,7 C 63 % 1025,7 hPa 0,0 l/m 0 min 0 min 0,0 UV-I 0 W/m 12,9 km/h (3 Bft)
10.03.2014 01:42 9,2 C 6,7 C 63 % 1025,7 hPa 0,0 l/m 0 min 0 min 0,0 UV-I 0 W/m 10,3 km/h (2 Bft)
10.03.2014 01:44 9,2 C 6,7 C 63 % 1025,6 hPa 0,0 l/m 0 min 0 min 0,0 UV-I 0 W/m 12,9 km/h (3 Bft)
10.03.2014 01:46 9,2 C 6,7 C 63 % 1025,6 hPa 0,0 l/m 0 min 0 min 0,0 UV-I 0 W/m 10,3 km/h (2 Bft)
10.03.2014 01:48 9,2 C 6,7 C 63 % 1025,6 hPa 0,0 l/m 0 min 0 min 0,0 UV-I 0 W/m 10,3 km/h (2 Bft)
10.03.2014 01:50 9,1 C 6,7 C 63 % 1025,6 hPa 0,0 l/m 0 min 0 min 0,0 UV-I 0 W/m 12,9 km/h (3 Bft)
10.03.2014 01:52 9,1 C 6,7 C 63 % 1025,6 hPa 0,0 l/m 0 min 0 min 0,0 UV-I 0 W/m 18,0 km/h (3 Bft)
10.03.2014 01:54 9,1 C 6,7 C 64 % 1025,6 hPa 0,0 l/m 0 min 0 min 0,0 UV-I 0 W/m 10,3 km/h (2 Bft)
10.03.2014 01:56 9,1 C 6,7 C 64 % 1025,5 hPa 0,0 l/m 0 min 0 min 0,0 UV-I 0 W/m 15,4 km/h (3 Bft)
10.03.2014 01:58 9,1 C 6,7 C 64 % 1025,6 hPa 0,0 l/m 0 min 0 min 0,0 UV-I 0 W/m 15,4 km/h (3 Bft)
10.03.2014 02:00 9,0 C 6,7 C 64 % 1025,5 hPa 0,0 l/m 0 min 0 min 0,0 UV-I 0 W/m 15,4 km/h (3 Bft)
10.03.2014 02:02 9,0 C 6,1 C 64 % 1025,5 hPa 0,0 l/m 0 min 0 min 0,0 UV-I 0 W/m 7,7 km/h (2 Bft)
10.03.2014 02:04 8,9 C 6,1 C 64 % 1025,5 hPa 0,0 l/m 0 min 0 min 0,0 UV-I 0 W/m 12,9 km/h (3 Bft)
10.03.2014 02:06 8,9 C 6,7 C 64 % 1025,5 hPa 0,0 l/m 0 min 0 min 0,0 UV-I 0 W/m 18,0 km/h (3 Bft)
10.03.2014 02:08 8,9 C 6,7 C 64 % 1025,4 hPa 0,0 l/m 0 min 0 min 0,0 UV-I 0 W/m 12,9 km/h (3 Bft)
10.03.2014 02:10 8,9 C 6,7 C 64 % 1025,5 hPa 0,0 l/m 0 min 0 min 0,0 UV-I 0 W/m 12,9 km/h (3 Bft)
10.03.2014 02:12 8,8 C 6,1 C 64 % 1025,5 hPa 0,0 l/m 0 min 0 min 0,0 UV-I 0 W/m 10,3 km/h (2 Bft)
10.03.2014 02:14 8,8 C 6,7 C 64 % 1025,5 hPa 0,0 l/m 0 min 0 min 0,0 UV-I 0 W/m 12,9 km/h (3 Bft)
10.03.2014 02:16 8,7 C 6,1 C 64 % 1025,4 hPa 0,0 l/m 0 min 0 min 0,0 UV-I 0 W/m 12,9 km/h (3 Bft)
10.03.2014 02:18 8,7 C 6,1 C 65 % 1025,4 hPa 0,0 l/m 0 min 0 min 0,0 UV-I 0 W/m 10,3 km/h (2 Bft)
10.03.2014 02:20 8,6 C 6,1 C 65 % 1025,4 hPa 0,0 l/m 0 min 0 min 0,0 UV-I 0 W/m 10,3 km/h (2 Bft)
10.03.2014 02:22 8,6 C 6,1 C 65 % 1025,4 hPa 0,0 l/m 0 min 0 min 0,0 UV-I 0 W/m 12,9 km/h (3 Bft)
10.03.2014 02:24 8,6 C 6,1 C 65 % 1025,4 hPa 0,0 l/m 0 min 0 min 0,0 UV-I 0 W/m 10,3 km/h (2 Bft)
10.03.2014 02:26 8,5 C 6,1 C 65 % 1025,4 hPa 0,0 l/m 0 min 0 min 0,0 UV-I 0 W/m 10,3 km/h (2 Bft)
10.03.2014 02:28 8,4 C 6,1 C 66 % 1025,4 hPa 0,0 l/m 0 min 0 min 0,0 UV-I 0 W/m 12,9 km/h (3 Bft)
10.03.2014 02:30 8,4 C 6,1 C 66 % 1025,3 hPa 0,0 l/m 0 min 0 min 0,0 UV-I 0 W/m 15,4 km/h (3 Bft)
10.03.2014 02:32 8,3 C 5,6 C 66 % 1025,4 hPa 0,0 l/m 0 min 0 min 0,0 UV-I 0 W/m 12,9 km/h (3 Bft)
10.03.2014 02:34 8,3 C 6,1 C 66 % 1025,4 hPa 0,0 l/m 0 min 0 min 0,0 UV-I 0 W/m 12,9 km/h (3 Bft)
10.03.2014 02:36 8,3 C 6,1 C 66 % 1025,3 hPa 0,0 l/m 0 min 0 min 0,0 UV-I 0 W/m 12,9 km/h (3 Bft)
10.03.2014 02:38 8,3 C 6,1 C 66 % 1025,3 hPa 0,0 l/m 0 min 0 min 0,0 UV-I 0 W/m 10,3 km/h (2 Bft)
10.03.2014 02:40 8,2 C 6,1 C 66 % 1025,3 hPa 0,0 l/m 0 min 0 min 0,0 UV-I 0 W/m 12,9 km/h (3 Bft)
10.03.2014 02:42 8,2 C 6,1 C 66 % 1025,3 hPa 0,0 l/m 0 min 0 min 0,0 UV-I 0 W/m 7,7 km/h (2 Bft)
10.03.2014 02:44 8,2 C 5,6 C 66 % 1025,3 hPa 0,0 l/m 0 min 0 min 0,0 UV-I 0 W/m 10,3 km/h (2 Bft)
10.03.2014 02:46 8,3 C 6,1 C 66 % 1025,3 hPa 0,0 l/m 0 min 0 min 0,0 UV-I 0 W/m 12,9 km/h (3 Bft)
10.03.2014 02:48 8,3 C 5,6 C 67 % 1025,3 hPa 0,0 l/m 0 min 0 min 0,0 UV-I 0 W/m 15,4 km/h (3 Bft)
10.03.2014 02:50 8,3 C 5,6 C 67 % 1025,3 hPa 0,0 l/m 0 min 0 min 0,0 UV-I 0 W/m 10,3 km/h (2 Bft)
10.03.2014 02:52 8,2 C 5,6 C 67 % 1025,3 hPa 0,0 l/m 0 min 0 min 0,0 UV-I 0 W/m 12,9 km/h (3 Bft)
10.03.2014 02:54 8,2 C 5,6 C 67 % 1025,4 hPa 0,0 l/m 0 min 0 min 0,0 UV-I 0 W/m 10,3 km/h (2 Bft)
10.03.2014 02:56 8,2 C 5,6 C 67 % 1025,3 hPa 0,0 l/m 0 min 0 min 0,0 UV-I 0 W/m 12,9 km/h (3 Bft)
10.03.2014 02:58 8,2 C 5,6 C 67 % 1025,3 hPa 0,0 l/m 0 min 0 min 0,0 UV-I 0 W/m 10,3 km/h (2 Bft)
10.03.2014 03:00 8,2 C 5,6 C 67 % 1025,4 hPa 0,0 l/m 0 min 0 min 0,0 UV-I 0 W/m 10,3 km/h (2 Bft)
10.03.2014 03:02 8,2 C 5,6 C 67 % 1025,4 hPa 0,0 l/m 0 min 0 min 0,0 UV-I 0 W/m 7,7 km/h (2 Bft)
10.03.2014 03:04 8,2 C 5,6 C 67 % 1025,4 hPa 0,0 l/m 0 min 0 min 0,0 UV-I 0 W/m 0,0 km/h (0 Bft)
10.03.2014 03:06 8,2 C 5,6 C 67 % 1025,5 hPa 0,0 l/m 0 min 0 min 0,0 UV-I 0 W/m 0,0 km/h (0 Bft)
10.03.2014 03:08 8,2 C 5,6 C 67 % 1025,5 hPa 0,0 l/m 0 min 0 min 0,0 UV-I 0 W/m 0,0 km/h (0 Bft)
10.03.2014 03:10 8,2 C 5,6 C 67 % 1025,6 hPa 0,0 l/m 0 min 0 min 0,0 UV-I 0 W/m 0,0 km/h (0 Bft)
10.03.2014 03:12 8,2 C 5,6 C 68 % 1025,6 hPa 0,0 l/m 0 min 0 min 0,0 UV-I 0 W/m 0,0 km/h (0 Bft)
10.03.2014 03:14 8,1 C 5,6 C 68 % 1025,6 hPa 0,0 l/m 0 min 0 min 0,0 UV-I 0 W/m 0,0 km/h (0 Bft)
10.03.2014 03:16 7,9 C 5,0 C 68 % 1025,6 hPa 0,0 l/m 0 min 0 min 0,0 UV-I 0 W/m 0,0 km/h (0 Bft)
10.03.2014 03:18 7,8 C 5,0 C 69 % 1025,6 hPa 0,0 l/m 0 min 0 min 0,0 UV-I 0 W/m 0,0 km/h (0 Bft)
10.03.2014 03:20 7,7 C 5,0 C 69 % 1025,6 hPa 0,0 l/m 0 min 0 min 0,0 UV-I 0 W/m 0,0 km/h (0 Bft)
10.03.2014 03:22 7,6 C 5,0 C 70 % 1025,6 hPa 0,0 l/m 0 min 0 min 0,0 UV-I 0 W/m 0,0 km/h (0 Bft)
10.03.2014 03:24 7,4 C 4,4 C 70 % 1025,6 hPa 0,0 l/m 0 min 0 min 0,0 UV-I 0 W/m 0,0 km/h (0 Bft)
10.03.2014 03:26 7,3 C 4,4 C 70 % 1025,6 hPa 0,0 l/m 0 min 0 min 0,0 UV-I 0 W/m 0,0 km/h (0 Bft)
10.03.2014 03:28 7,3 C 4,4 C 71 % 1025,7 hPa 0,0 l/m 0 min 0 min 0,0 UV-I 0 W/m 0,0 km/h (0 Bft)
10.03.2014 03:30 7,3 C 5,0 C 71 % 1025,8 hPa 0,0 l/m 0 min 0 min 0,0 UV-I 0 W/m 0,0 km/h (0 Bft)
10.03.2014 03:32 7,3 C 4,4 C 71 % 1025,8 hPa 0,0 l/m 0 min 0 min 0,0 UV-I 0 W/m 0,0 km/h (0 Bft)
10.03.2014 03:34 7,2 C 4,4 C 71 % 1025,8 hPa 0,0 l/m 0 min 0 min 0,0 UV-I 0 W/m 0,0 km/h (0 Bft)
10.03.2014 03:36 7,2 C 4,4 C 71 % 1025,7 hPa 0,0 l/m 0 min 0 min 0,0 UV-I 0 W/m 0,0 km/h (0 Bft)
10.03.2014 03:38 7,1 C 4,4 C 71 % 1025,6 hPa 0,0 l/m 0 min 0 min 0,0 UV-I 0 W/m 0,0 km/h (0 Bft)
10.03.2014 03:40 6,9 C 3,9 C 72 % 1025,6 hPa 0,0 l/m 0 min 0 min 0,0 UV-I 0 W/m 0,0 km/h (0 Bft)
10.03.2014 03:42 6,7 C 3,9 C 72 % 1025,6 hPa 0,0 l/m 0 min 0 min 0,0 UV-I 0 W/m 0,0 km/h (0 Bft)
10.03.2014 03:44 6,6 C 3,9 C 73 % 1025,5 hPa 0,0 l/m 0 min 0 min 0,0 UV-I 0 W/m 0,0 km/h (0 Bft)
10.03.2014 03:46 6,4 C 3,9 C 73 % 1025,6 hPa 0,0 l/m 0 min 0 min 0,0 UV-I 0 W/m 0,0 km/h (0 Bft)
10.03.2014 03:48 6,3 C 3,9 C 74 % 1025,6 hPa 0,0 l/m 0 min 0 min 0,0 UV-I 0 W/m 0,0 km/h (0 Bft)
10.03.2014 03:50 6,2 C 3,9 C 74 % 1025,5 hPa 0,0 l/m 0 min 0 min 0,0 UV-I 0 W/m 0,0 km/h (0 Bft)
10.03.2014 03:52 6,1 C 3,3 C 74 % 1025,6 hPa 0,0 l/m 0 min 0 min 0,0 UV-I 0 W/m 0,0 km/h (0 Bft)
10.03.2014 03:54 6,0 C 3,3 C 75 % 1025,6 hPa 0,0 l/m 0 min 0 min 0,0 UV-I 0 W/m 0,0 km/h (0 Bft)
10.03.2014 03:56 5,9 C 3,3 C 75 % 1025,6 hPa 0,0 l/m 0 min 0 min 0,0 UV-I 0 W/m 0,0 km/h (0 Bft)
10.03.2014 03:58 5,8 C 3,3 C 76 % 1025,6 hPa 0,0 l/m 0 min 0 min 0,0 UV-I 0 W/m 0,0 km/h (0 Bft)
10.03.2014 04:00 5,7 C 3,3 C 76 % 1025,6 hPa 0,0 l/m 0 min 0 min 0,0 UV-I 0 W/m 0,0 km/h (0 Bft)
10.03.2014 04:02 5,6 C 3,3 C 77 % 1025,6 hPa 0,0 l/m 0 min 0 min 0,0 UV-I 0 W/m 0,0 km/h (0 Bft)
10.03.2014 04:04 5,6 C 2,8 C 77 % 1025,5 hPa 0,0 l/m 0 min 0 min 0,0 UV-I 0 W/m 0,0 km/h (0 Bft)
10.03.2014 04:06 5,4 C 2,8 C 77 % 1025,5 hPa 0,0 l/m 0 min 0 min 0,0 UV-I 0 W/m 0,0 km/h (0 Bft)
10.03.2014 04:08 5,3 C 2,8 C 77 % 1025,4 hPa 0,0 l/m 0 min 0 min 0,0 UV-I 0 W/m 0,0 km/h (0 Bft)
10.03.2014 04:10 5,2 C 2,8 C 78 % 1025,5 hPa 0,0 l/m 0 min 0 min 0,0 UV-I 0 W/m 0,0 km/h (0 Bft)
10.03.2014 04:12 5,1 C 2,8 C 78 % 1025,5 hPa 0,0 l/m 0 min 0 min 0,0 UV-I 0 W/m 0,0 km/h (0 Bft)
10.03.2014 04:14 5,1 C 2,8 C 78 % 1025,6 hPa 0,0 l/m 0 min 0 min 0,0 UV-I 0 W/m 0,0 km/h (0 Bft)
10.03.2014 04:16 4,9 C 2,2 C 78 % 1025,5 hPa 0,0 l/m 0 min 0 min 0,0 UV-I 0 W/m 0,0 km/h (0 Bft)
10.03.2014 04:18 4,9 C 2,2 C 79 % 1025,5 hPa 0,0 l/m 0 min 0 min 0,0 UV-I 0 W/m 0,0 km/h (0 Bft)
10.03.2014 04:20 4,9 C 2,8 C 79 % 1025,4 hPa 0,0 l/m 0 min 0 min 0,0 UV-I 0 W/m 0,0 km/h (0 Bft)
10.03.2014 04:22 5,0 C 2,8 C 80 % 1025,4 hPa 0,0 l/m 0 min 0 min 0,0 UV-I 0 W/m 0,0 km/h (0 Bft)
10.03.2014 04:24 4,9 C 2,2 C 79 % 1025,4 hPa 0,0 l/m 0 min 0 min 0,0 UV-I 0 W/m 0,0 km/h (0 Bft)
10.03.2014 04:26 4,9 C 2,2 C 80 % 1025,4 hPa 0,0 l/m 0 min 0 min 0,0 UV-I 0 W/m 0,0 km/h (0 Bft)
10.03.2014 04:28 4,9 C 2,2 C 80 % 1025,4 hPa 0,0 l/m 0 min 0 min 0,0 UV-I 0 W/m 0,0 km/h (0 Bft)
10.03.2014 04:30 4,9 C 2,2 C 80 % 1025,4 hPa 0,0 l/m 0 min 0 min 0,0 UV-I 0 W/m 0,0 km/h (0 Bft)
10.03.2014 04:32 4,9 C 2,2 C 80 % 1025,5 hPa 0,0 l/m 0 min 0 min 0,0 UV-I 0 W/m 0,0 km/h (0 Bft)
10.03.2014 04:34 4,9 C 2,2 C 80 % 1025,5 hPa 0,0 l/m 0 min 0 min 0,0 UV-I 0 W/m 0,0 km/h (0 Bft)
10.03.2014 04:36 4,9 C 2,2 C 80 % 1025,5 hPa 0,0 l/m 0 min 0 min 0,0 UV-I 0 W/m 0,0 km/h (0 Bft)
10.03.2014 04:38 4,8 C 2,2 C 80 % 1025,5 hPa 0,0 l/m 0 min 0 min 0,0 UV-I 0 W/m 0,0 km/h (0 Bft)
10.03.2014 04:40 4,7 C 2,2 C 80 % 1025,5 hPa 0,0 l/m 0 min 0 min 0,0 UV-I 0 W/m 0,0 km/h (0 Bft)
10.03.2014 04:42 4,7 C 2,2 C 80 % 1025,4 hPa 0,0 l/m 0 min 0 min 0,0 UV-I 0 W/m 0,0 km/h (0 Bft)
10.03.2014 04:44 4,6 C 2,2 C 81 % 1025,5 hPa 0,0 l/m 0 min 0 min 0,0 UV-I 0 W/m 0,0 km/h (0 Bft)
10.03.2014 04:46 4,4 C 2,2 C 81 % 1025,5 hPa 0,0 l/m 0 min 0 min 0,0 UV-I 0 W/m 0,0 km/h (0 Bft)
10.03.2014 04:48 4,3 C 2,2 C 81 % 1025,5 hPa 0,0 l/m 0 min 0 min 0,0 UV-I 0 W/m 0,0 km/h (0 Bft)
10.03.2014 04:50 4,3 C 2,2 C 82 % 1025,5 hPa 0,0 l/m 0 min 0 min 0,0 UV-I 0 W/m 0,0 km/h (0 Bft)
10.03.2014 04:52 4,2 C 1,7 C 82 % 1025,5 hPa 0,0 l/m 0 min 0 min 0,0 UV-I 0 W/m 0,0 km/h (0 Bft)
10.03.2014 04:54 4,2 C 1,7 C 82 % 1025,5 hPa 0,0 l/m 0 min 0 min 0,0 UV-I 0 W/m 0,0 km/h (0 Bft)
10.03.2014 04:56 4,1 C 1,7 C 82 % 1025,5 hPa 0,0 l/m 0 min 0 min 0,0 UV-I 0 W/m 0,0 km/h (0 Bft)
10.03.2014 04:58 4,0 C 1,7 C 82 % 1025,5 hPa 0,0 l/m 0 min 0 min 0,0 UV-I 0 W/m 0,0 km/h (0 Bft)
10.03.2014 05:00 3,9 C 1,7 C 82 % 1025,5 hPa 0,0 l/m 0 min 0 min 0,0 UV-I 0 W/m 0,0 km/h (0 Bft)
10.03.2014 05:02 3,9 C 1,7 C 83 % 1025,5 hPa 0,0 l/m 0 min 0 min 0,0 UV-I 0 W/m 0,0 km/h (0 Bft)
10.03.2014 05:04 3,9 C 1,7 C 83 % 1025,5 hPa 0,0 l/m 0 min 0 min 0,0 UV-I 0 W/m 0,0 km/h (0 Bft)
10.03.2014 05:06 3,8 C 1,7 C 83 % 1025,5 hPa 0,0 l/m 0 min 0 min 0,0 UV-I 0 W/m 0,0 km/h (0 Bft)
10.03.2014 05:08 3,7 C 1,7 C 83 % 1025,5 hPa 0,0 l/m 0 min 0 min 0,0 UV-I 0 W/m 0,0 km/h (0 Bft)
10.03.2014 05:10 3,7 C 1,7 C 83 % 1025,5 hPa 0,0 l/m 0 min 0 min 0,0 UV-I 0 W/m 0,0 km/h (0 Bft)
10.03.2014 05:12 3,6 C 1,7 C 83 % 1025,4 hPa 0,0 l/m 0 min 0 min 0,0 UV-I 0 W/m 0,0 km/h (0 Bft)
10.03.2014 05:14 3,6 C 1,1 C 84 % 1025,5 hPa 0,0 l/m 0 min 0 min 0,0 UV-I 0 W/m 0,0 km/h (0 Bft)
10.03.2014 05:16 3,5 C 1,1 C 84 % 1025,4 hPa 0,0 l/m 0 min 0 min 0,0 UV-I 0 W/m 0,0 km/h (0 Bft)
10.03.2014 05:18 3,4 C 1,1 C 84 % 1025,4 hPa 0,0 l/m 0 min 0 min 0,0 UV-I 0 W/m 0,0 km/h (0 Bft)
10.03.2014 05:20 3,4 C 1,1 C 84 % 1025,4 hPa 0,0 l/m 0 min 0 min 0,0 UV-I 0 W/m 0,0 km/h (0 Bft)
10.03.2014 05:22 3,3 C 1,1 C 84 % 1025,4 hPa 0,0 l/m 0 min 0 min 0,0 UV-I 0 W/m 0,0 km/h (0 Bft)
10.03.2014 05:24 3,3 C 1,1 C 85 % 1025,5 hPa 0,0 l/m 0 min 0 min 0,0 UV-I 0 W/m 0,0 km/h (0 Bft)
10.03.2014 05:26 3,3 C 1,1 C 85 % 1025,5 hPa 0,0 l/m 0 min 0 min 0,0 UV-I 0 W/m 0,0 km/h (0 Bft)
10.03.2014 05:28 3,2 C 1,1 C 85 % 1025,5 hPa 0,0 l/m 0 min 0 min 0,0 UV-I 0 W/m 0,0 km/h (0 Bft)
10.03.2014 05:30 3,2 C 1,1 C 85 % 1025,5 hPa 0,0 l/m 0 min 0 min 0,0 UV-I 0 W/m 0,0 km/h (0 Bft)
10.03.2014 05:32 3,2 C 1,1 C 85 % 1025,5 hPa 0,0 l/m 0 min 0 min 0,0 UV-I 0 W/m 0,0 km/h (0 Bft)
10.03.2014 05:34 3,2 C 1,1 C 85 % 1025,4 hPa 0,0 l/m 0 min 0 min 0,0 UV-I 0 W/m 0,0 km/h (0 Bft)
10.03.2014 05:36 3,1 C 1,1 C 85 % 1025,4 hPa 0,0 l/m 0 min 0 min 0,0 UV-I 0 W/m 0,0 km/h (0 Bft)
10.03.2014 05:38 3,1 C 1,1 C 85 % 1025,3 hPa 0,0 l/m 0 min 0 min 0,0 UV-I 0 W/m 0,0 km/h (0 Bft)
10.03.2014 05:40 3,1 C 1,1 C 85 % 1025,3 hPa 0,0 l/m 0 min 0 min 0,0 UV-I 0 W/m 0,0 km/h (0 Bft)
10.03.2014 05:42 3,2 C 1,1 C 85 % 1025,3 hPa 0,0 l/m 0 min 0 min 0,0 UV-I 0 W/m 0,0 km/h (0 Bft)
10.03.2014 05:44 3,1 C 1,1 C 85 % 1025,3 hPa 0,0 l/m 0 min 0 min 0,0 UV-I 0 W/m 0,0 km/h (0 Bft)
10.03.2014 05:46 3,1 C 1,1 C 85 % 1025,3 hPa 0,0 l/m 0 min 0 min 0,0 UV-I 0 W/m 0,0 km/h (0 Bft)
10.03.2014 05:48 3,0 C 1,1 C 85 % 1025,2 hPa 0,0 l/m 0 min 0 min 0,0 UV-I 0 W/m 0,0 km/h (0 Bft)
10.03.2014 05:50 3,1 C 1,1 C 86 % 1025,2 hPa 0,0 l/m 0 min 0 min 0,0 UV-I 0 W/m 0,0 km/h (0 Bft)
10.03.2014 05:52 3,1 C 1,1 C 86 % 1025,2 hPa 0,0 l/m 0 min 0 min 0,0 UV-I 0 W/m 0,0 km/h (0 Bft)
10.03.2014 05:54 3,0 C 1,1 C 86 % 1025,2 hPa 0,0 l/m 0 min 0 min 0,0 UV-I 0 W/m 0,0 km/h (0 Bft)
10.03.2014 05:56 3,0 C 1,1 C 86 % 1025,2 hPa 0,0 l/m 0 min 0 min 0,0 UV-I 0 W/m 0,0 km/h (0 Bft)
10.03.2014 05:58 3,1 C 1,1 C 86 % 1025,1 hPa 0,0 l/m 0 min 0 min 0,0 UV-I 0 W/m 0,0 km/h (0 Bft)
10.03.2014 06:00 3,2 C 1,1 C 86 % 1025,1 hPa 0,0 l/m 0 min 0 min 0,0 UV-I 0 W/m 0,0 km/h (0 Bft)
10.03.2014 06:02 3,2 C 1,1 C 86 % 1025,1 hPa 0,0 l/m 0 min 0 min 0,0 UV-I 0 W/m 0,0 km/h (0 Bft)
10.03.2014 06:04 3,2 C 1,1 C 86 % 1025,1 hPa 0,0 l/m 0 min 0 min 0,0 UV-I 0 W/m 0,0 km/h (0 Bft)
10.03.2014 06:06 3,2 C 1,1 C 86 % 1025,2 hPa 0,0 l/m 0 min 0 min 0,0 UV-I 0 W/m 0,0 km/h (0 Bft)
10.03.2014 06:08 3,2 C 1,1 C 86 % 1025,1 hPa 0,0 l/m 0 min 0 min 0,0 UV-I 0 W/m 0,0 km/h (0 Bft)
10.03.2014 06:10 3,2 C 1,1 C 86 % 1025,1 hPa 0,0 l/m 0 min 0 min 0,0 UV-I 0 W/m 0,0 km/h (0 Bft)
10.03.2014 06:12 3,2 C 1,1 C 86 % 1025,1 hPa 0,0 l/m 0 min 0 min 0,0 UV-I 0 W/m 0,0 km/h (0 Bft)
10.03.2014 06:14 3,2 C 1,1 C 86 % 1025,2 hPa 0,0 l/m 0 min 0 min 0,0 UV-I 0 W/m 0,0 km/h (0 Bft)
10.03.2014 06:16 3,2 C 1,1 C 86 % 1025,2 hPa 0,0 l/m 0 min 0 min 0,0 UV-I 0 W/m 0,0 km/h (0 Bft)
10.03.2014 06:18 3,2 C 1,1 C 86 % 1025,2 hPa 0,0 l/m 0 min 0 min 0,0 UV-I 0 W/m 0,0 km/h (0 Bft)
10.03.2014 06:20 3,2 C 1,1 C 86 % 1025,2 hPa 0,0 l/m 0 min 0 min 0,0 UV-I 0 W/m 0,0 km/h (0 Bft)
10.03.2014 06:22 3,1 C 1,1 C 86 % 1025,2 hPa 0,0 l/m 0 min 0 min 0,0 UV-I 0 W/m 0,0 km/h (0 Bft)
10.03.2014 06:24 3,0 C 0,6 C 86 % 1025,2 hPa 0,0 l/m 0 min 0 min 0,0 UV-I 0 W/m 0,0 km/h (0 Bft)
10.03.2014 06:26 2,9 C 0,6 C 86 % 1025,2 hPa 0,0 l/m 0 min 0 min 0,0 UV-I 0 W/m 0,0 km/h (0 Bft)
10.03.2014 06:28 2,9 C 0,6 C 86 % 1025,2 hPa 0,0 l/m 0 min 0 min 0,0 UV-I 0 W/m 0,0 km/h (0 Bft)
10.03.2014 06:30 2,9 C 0,6 C 87 % 1025,1 hPa 0,0 l/m 0 min 0 min 0,0 UV-I 0 W/m 0,0 km/h (0 Bft)
10.03.2014 06:32 2,8 C 0,6 C 87 % 1025,1 hPa 0,0 l/m 0 min 0 min 0,0 UV-I 0 W/m 0,0 km/h (0 Bft)
10.03.2014 06:34 2,7 C 0,6 C 87 % 1025,1 hPa 0,0 l/m 0 min 0 min 0,0 UV-I 0 W/m 0,0 km/h (0 Bft)
10.03.2014 06:36 2,7 C 0,6 C 87 % 1025,1 hPa 0,0 l/m 0 min 0 min 0,0 UV-I 0 W/m 0,0 km/h (0 Bft)
10.03.2014 06:38 2,7 C 0,6 C 87 % 1025,1 hPa 0,0 l/m 0 min 0 min 0,0 UV-I 0 W/m 0,0 km/h (0 Bft)
10.03.2014 06:40 2,6 C 0,6 C 87 % 1025,1 hPa 0,0 l/m 0 min 0 min 0,0 UV-I 0 W/m 0,0 km/h (0 Bft)
10.03.2014 06:42 2,4 C 0,6 C 87 % 1025,1 hPa 0,0 l/m 0 min 0 min 0,0 UV-I 0 W/m 0,0 km/h (0 Bft)
10.03.2014 06:44 2,4 C 0,6 C 87 % 1025,1 hPa 0,0 l/m 0 min 0 min 0,0 UV-I 0 W/m 0,0 km/h (0 Bft)
10.03.2014 06:46 2,4 C 0,6 C 88 % 1025,1 hPa 0,0 l/m 0 min 0 min 0,0 UV-I 0 W/m 0,0 km/h (0 Bft)
10.03.2014 06:48 2,4 C 0,6 C 88 % 1025,1 hPa 0,0 l/m 0 min 0 min 0,0 UV-I 0 W/m 0,0 km/h (0 Bft)
10.03.2014 06:50 2,4 C 0,6 C 88 % 1025,1 hPa 0,0 l/m 0 min 0 min 0,0 UV-I 0 W/m 0,0 km/h (0 Bft)
10.03.2014 06:52 2,5 C 0,6 C 88 % 1025,0 hPa 0,0 l/m 0 min 0 min 0,0 UV-I 0 W/m 0,0 km/h (0 Bft)
10.03.2014 06:54 2,5 C 0,6 C 88 % 1025,0 hPa 0,0 l/m 0 min 0 min 0,0 UV-I 0 W/m 0,0 km/h (0 Bft)
10.03.2014 06:56 2,4 C 0,6 C 88 % 1025,1 hPa 0,0 l/m 0 min 0 min 0,0 UV-I 5 W/m 0,0 km/h (0 Bft)
10.03.2014 06:58 2,4 C 0,6 C 88 % 1025,1 hPa 0,0 l/m 0 min 0 min 0,0 UV-I 5 W/m 0,0 km/h (0 Bft)
10.03.2014 07:00 2,3 C 0,6 C 88 % 1025,1 hPa 0,0 l/m 0 min 0 min 0,0 UV-I 5 W/m 0,0 km/h (0 Bft)
10.03.2014 07:02 2,4 C 0,6 C 88 % 1025,0 hPa 0,0 l/m 0 min 0 min 0,0 UV-I 5 W/m 0,0 km/h (0 Bft)
10.03.2014 07:04 2,4 C 0,6 C 88 % 1025,0 hPa 0,0 l/m 0 min 0 min 0,0 UV-I 7 W/m 0,0 km/h (0 Bft)
10.03.2014 07:06 2,6 C 0,6 C 88 % 1025,1 hPa 0,0 l/m 0 min 0 min 0,0 UV-I 7 W/m 0,0 km/h (0 Bft)
10.03.2014 07:08 2,5 C 0,6 C 88 % 1025,1 hPa 0,0 l/m 0 min 0 min 0,0 UV-I 9 W/m 0,0 km/h (0 Bft)
10.03.2014 07:10 2,4 C 0,6 C 88 % 1025,0 hPa 0,0 l/m 0 min 0 min 0,0 UV-I 9 W/m 0,0 km/h (0 Bft)
10.03.2014 07:12 2,4 C 0,6 C 88 % 1025,0 hPa 0,0 l/m 0 min 0 min 0,0 UV-I 11 W/m 0,0 km/h (0 Bft)
10.03.2014 07:14 2,4 C 0,6 C 88 % 1025,0 hPa 0,0 l/m 0 min 0 min 0,0 UV-I 12 W/m 0,0 km/h (0 Bft)
10.03.2014 07:16 2,4 C 0,6 C 88 % 1025,0 hPa 0,0 l/m 0 min 0 min 0,0 UV-I 12 W/m 0,0 km/h (0 Bft)
10.03.2014 07:18 2,4 C 0,6 C 88 % 1025,1 hPa 0,0 l/m 0 min 0 min 0,0 UV-I 12 W/m 0,0 km/h (0 Bft)
10.03.2014 07:20 2,4 C 0,6 C 88 % 1025,1 hPa 0,0 l/m 0 min 0 min 0,0 UV-I 14 W/m 0,0 km/h (0 Bft)
10.03.2014 07:22 2,4 C 0,6 C 88 % 1025,0 hPa 0,0 l/m 0 min 0 min 0,0 UV-I 16 W/m 0,0 km/h (0 Bft)
10.03.2014 07:24 2,4 C 0,6 C 88 % 1025,0 hPa 0,0 l/m 0 min 0 min 0,0 UV-I 16 W/m 0,0 km/h (0 Bft)
10.03.2014 07:26 2,3 C 0,6 C 88 % 1025,1 hPa 0,0 l/m 0 min 0 min 0,0 UV-I 18 W/m 0,0 km/h (0 Bft)
10.03.2014 07:28 2,3 C 0,6 C 88 % 1025,1 hPa 0,0 l/m 0 min 0 min 0,0 UV-I 19 W/m 0,0 km/h (0 Bft)
10.03.2014 07:30 2,3 C 0,6 C 89 % 1025,1 hPa 0,0 l/m 0 min 0 min 0,0 UV-I 19 W/m 0,0 km/h (0 Bft)
10.03.2014 07:32 2,3 C 0,6 C 89 % 1025,2 hPa 0,0 l/m 0 min 0 min 0,0 UV-I 21 W/m 0,0 km/h (0 Bft)
10.03.2014 07:34 2,2 C 0,6 C 89 % 1025,1 hPa 0,0 l/m 0 min 0 min 0,0 UV-I 21 W/m 0,0 km/h (0 Bft)
10.03.2014 07:36 2,2 C 0,6 C 89 % 1025,1 hPa 0,0 l/m 0 min 0 min 0,0 UV-I 23 W/m 0,0 km/h (0 Bft)
10.03.2014 07:38 2,2 C 0,6 C 89 % 1025,2 hPa 0,0 l/m 0 min 0 min 0,0 UV-I 25 W/m 0,0 km/h (0 Bft)
10.03.2014 07:40 2,3 C 0,6 C 89 % 1025,3 hPa 0,0 l/m 0 min 0 min 0,0 UV-I 25 W/m 0,0 km/h (0 Bft)
10.03.2014 07:42 2,3 C 0,6 C 89 % 1025,2 hPa 0,0 l/m 0 min 0 min 0,0 UV-I 25 W/m 0,0 km/h (0 Bft)
10.03.2014 07:44 2,3 C 0,6 C 89 % 1025,3 hPa 0,0 l/m 0 min 0 min 0,0 UV-I 42 W/m 0,0 km/h (0 Bft)
10.03.2014 07:46 2,4 C 0,6 C 89 % 1025,3 hPa 0,0 l/m 0 min 0 min 0,0 UV-I 49 W/m 0,0 km/h (0 Bft)
10.03.2014 07:48 2,6 C 0,6 C 89 % 1025,2 hPa 0,0 l/m 0 min 0 min 0,0 UV-I 56 W/m 0,0 km/h (0 Bft)
10.03.2014 07:50 2,6 C 0,6 C 89 % 1025,2 hPa 0,0 l/m 0 min 0 min 0,0 UV-I 62 W/m 0,0 km/h (0 Bft)
10.03.2014 07:52 2,7 C 0,6 C 89 % 1025,3 hPa 0,0 l/m 0 min 0 min 0,0 UV-I 65 W/m 0,0 km/h (0 Bft)
10.03.2014 07:54 2,7 C 1,1 C 89 % 1025,3 hPa 0,0 l/m 0 min 0 min 0,0 UV-I 67 W/m 0,0 km/h (0 Bft)
10.03.2014 07:56 2,8 C 1,1 C 89 % 1025,3 hPa 0,0 l/m 0 min 0 min 0,0 UV-I 74 W/m 0,0 km/h (0 Bft)
10.03.2014 07:58 2,9 C 1,1 C 89 % 1025,4 hPa 0,0 l/m 0 min 0 min 0,0 UV-I 77 W/m 0,0 km/h (0 Bft)
10.03.2014 08:00 3,1 C 1,1 C 89 % 1025,4 hPa 0,0 l/m 0 min 0 min 0,0 UV-I 81 W/m 0,0 km/h (0 Bft)
10.03.2014 08:02 3,3 C 1,1 C 89 % 1025,4 hPa 0,0 l/m 2 min 0 min 0,0 UV-I 86 W/m 0,0 km/h (0 Bft)
10.03.2014 08:04 3,6 C 1,1 C 89 % 1025,4 hPa 0,0 l/m 2 min 0 min 0,0 UV-I 90 W/m 0,0 km/h (0 Bft)
10.03.2014 08:06 3,7 C 1,1 C 89 % 1025,4 hPa 0,0 l/m 0 min 0 min 0,0 UV-I 84 W/m 0,0 km/h (0 Bft)
10.03.2014 08:08 3,9 C 1,7 C 88 % 1025,4 hPa 0,0 l/m 2 min 0 min 0,0 UV-I 97 W/m 0,0 km/h (0 Bft)
10.03.2014 08:10 4,2 C 1,7 C 87 % 1025,4 hPa 0,0 l/m 2 min 0 min 0,0 UV-I 100 W/m 0,0 km/h (0 Bft)
10.03.2014 08:12 4,3 C 1,7 C 87 % 1025,4 hPa 0,0 l/m 2 min 0 min 0,0 UV-I 105 W/m 0,0 km/h (0 Bft)
10.03.2014 08:14 4,4 C 1,7 C 86 % 1025,4 hPa 0,0 l/m 2 min 0 min 0,0 UV-I 109 W/m 0,0 km/h (0 Bft)
10.03.2014 08:16 4,7 C 1,7 C 85 % 1025,4 hPa 0,0 l/m 2 min 0 min 0,0 UV-I 114 W/m 0,0 km/h (0 Bft)
10.03.2014 08:18 4,8 C 1,7 C 84 % 1025,4 hPa 0,0 l/m 2 min 0 min 0,0 UV-I 120 W/m 0,0 km/h (0 Bft)
10.03.2014 08:20 5,0 C 2,2 C 84 % 1025,5 hPa 0,0 l/m 2 min 0 min 0,0 UV-I 125 W/m 0,0 km/h (0 Bft)
10.03.2014 08:22 5,1 C 2,2 C 83 % 1025,5 hPa 0,0 l/m 2 min 0 min 0,0 UV-I 130 W/m 0,0 km/h (0 Bft)
10.03.2014 08:24 5,1 C 2,2 C 83 % 1025,5 hPa 0,0 l/m 2 min 0 min 0,0 UV-I 137 W/m 0,0 km/h (0 Bft)
10.03.2014 08:26 5,3 C 2,2 C 82 % 1025,5 hPa 0,0 l/m 2 min 0 min 0,0 UV-I 141 W/m 0,0 km/h (0 Bft)
10.03.2014 08:28 5,4 C 2,8 C 82 % 1025,5 hPa 0,0 l/m 2 min 0 min 0,0 UV-I 146 W/m 0,0 km/h (0 Bft)
10.03.2014 08:30 5,5 C 2,8 C 81 % 1025,6 hPa 0,0 l/m 2 min 0 min 0,0 UV-I 153 W/m 0,0 km/h (0 Bft)
10.03.2014 08:32 5,6 C 2,8 C 81 % 1025,5 hPa 0,0 l/m 2 min 0 min 0,0 UV-I 158 W/m 0,0 km/h (0 Bft)
10.03.2014 08:34 5,7 C 2,8 C 80 % 1025,5 hPa 0,0 l/m 2 min 0 min 0,0 UV-I 163 W/m 0,0 km/h (0 Bft)
10.03.2014 08:36 5,8 C 3,3 C 80 % 1025,5 hPa 0,0 l/m 2 min 0 min 0,0 UV-I 169 W/m 0,0 km/h (0 Bft)
10.03.2014 08:38 6,0 C 3,3 C 80 % 1025,6 hPa 0,0 l/m 2 min 0 min 0,0 UV-I 174 W/m 0,0 km/h (0 Bft)
10.03.2014 08:40 6,2 C 3,3 C 79 % 1025,6 hPa 0,0 l/m 2 min 0 min 0,0 UV-I 179 W/m 0,0 km/h (0 Bft)
10.03.2014 08:42 6,3 C 3,3 C 79 % 1025,6 hPa 0,0 l/m 2 min 0 min 0,0 UV-I 186 W/m 0,0 km/h (0 Bft)
10.03.2014 08:44 6,4 C 3,9 C 78 % 1025,5 hPa 0,0 l/m 2 min 0 min 0,0 UV-I 192 W/m 2,6 km/h (1 Bft)
10.03.2014 08:46 6,6 C 3,9 C 78 % 1025,5 hPa 0,0 l/m 2 min 0 min 0,0 UV-I 197 W/m 0,0 km/h (0 Bft)
10.03.2014 08:48 6,7 C 3,9 C 77 % 1025,5 hPa 0,0 l/m 2 min 0 min 0,0 UV-I 204 W/m 2,6 km/h (1 Bft)
10.03.2014 08:50 6,8 C 3,9 C 77 % 1025,5 hPa 0,0 l/m 2 min 0 min 0,0 UV-I 207 W/m 0,0 km/h (0 Bft)
10.03.2014 08:52 7,0 C 4,4 C 77 % 1025,5 hPa 0,0 l/m 2 min 0 min 0,0 UV-I 213 W/m 2,6 km/h (1 Bft)
10.03.2014 08:54 7,2 C 4,4 C 76 % 1025,5 hPa 0,0 l/m 2 min 0 min 0,0 UV-I 220 W/m 0,0 km/h (0 Bft)
10.03.2014 08:56 7,3 C 4,4 C 76 % 1025,6 hPa 0,0 l/m 2 min 0 min 0,0 UV-I 225 W/m 2,6 km/h (1 Bft)
10.03.2014 08:58 7,6 C 4,4 C 76 % 1025,6 hPa 0,0 l/m 2 min 0 min 0,0 UV-I 229 W/m 0,0 km/h (0 Bft)
10.03.2014 09:00 7,7 C 5,0 C 75 % 1025,5 hPa 0,0 l/m 2 min 0 min 0,0 UV-I 234 W/m 2,6 km/h (1 Bft)
10.03.2014 09:02 7,9 C 5,0 C 75 % 1025,5 hPa 0,0 l/m 2 min 0 min 0,0 UV-I 237 W/m 12,9 km/h (3 Bft)
10.03.2014 09:04 8,1 C 5,6 C 73 % 1025,5 hPa 0,0 l/m 2 min 0 min 0,0 UV-I 241 W/m 15,4 km/h (3 Bft)
10.03.2014 09:06 8,3 C 5,6 C 73 % 1025,4 hPa 0,0 l/m 2 min 0 min 0,0 UV-I 246 W/m 12,9 km/h (3 Bft)
10.03.2014 09:08 8,4 C 5,6 C 72 % 1025,3 hPa 0,0 l/m 2 min 0 min 0,0 UV-I 250 W/m 15,4 km/h (3 Bft)
10.03.2014 09:10 8,6 C 6,1 C 72 % 1025,3 hPa 0,0 l/m 2 min 0 min 0,0 UV-I 255 W/m 12,9 km/h (3 Bft)
10.03.2014 09:12 8,7 C 6,1 C 72 % 1025,2 hPa 0,0 l/m 2 min 0 min 0,0 UV-I 265 W/m 15,4 km/h (3 Bft)
10.03.2014 09:14 8,9 C 6,1 C 71 % 1025,2 hPa 0,0 l/m 2 min 0 min 0,0 UV-I 271 W/m 18,0 km/h (3 Bft)
10.03.2014 09:16 9,0 C 6,7 C 70 % 1025,2 hPa 0,0 l/m 2 min 0 min 0,0 UV-I 276 W/m 12,9 km/h (3 Bft)
10.03.2014 09:18 9,2 C 6,7 C 70 % 1025,2 hPa 0,0 l/m 2 min 0 min 0,0 UV-I 279 W/m 18,0 km/h (3 Bft)
10.03.2014 09:20 9,2 C 6,7 C 69 % 1025,2 hPa 0,0 l/m 2 min 0 min 0,0 UV-I 283 W/m 12,9 km/h (3 Bft)
10.03.2014 09:22 9,3 C 6,7 C 69 % 1025,2 hPa 0,0 l/m 2 min 0 min 0,0 UV-I 287 W/m 15,4 km/h (3 Bft)
10.03.2014 09:24 9,4 C 6,7 C 68 % 1025,2 hPa 0,0 l/m 2 min 0 min 0,0 UV-I 292 W/m 12,9 km/h (3 Bft)
10.03.2014 09:26 9,6 C 7,2 C 68 % 1025,2 hPa 0,0 l/m 2 min 0 min 0,0 UV-I 295 W/m 10,3 km/h (2 Bft)
10.03.2014 09:28 9,7 C 7,2 C 68 % 1025,3 hPa 0,0 l/m 2 min 0 min 0,0 UV-I 301 W/m 12,9 km/h (3 Bft)
10.03.2014 09:30 9,8 C 7,2 C 68 % 1025,3 hPa 0,0 l/m 2 min 0 min 0,0 UV-I 304 W/m 7,7 km/h (2 Bft)
10.03.2014 09:32 9,9 C 7,2 C 67 % 1025,3 hPa 0,0 l/m 2 min 0 min 0,0 UV-I 308 W/m 7,7 km/h (2 Bft)
10.03.2014 09:34 10,1 C 7,2 C 68 % 1025,2 hPa 0,0 l/m 2 min 0 min 0,0 UV-I 311 W/m 7,7 km/h (2 Bft)
10.03.2014 09:36 10,2 C 7,2 C 67 % 1025,2 hPa 0,0 l/m 2 min 0 min 0,0 UV-I 315 W/m 10,3 km/h (2 Bft)
10.03.2014 09:38 10,3 C 7,8 C 67 % 1025,2 hPa 0,0 l/m 2 min 0 min 0,0 UV-I 318 W/m 12,9 km/h (3 Bft)
10.03.2014 09:40 10,4 C 7,8 C 66 % 1025,2 hPa 0,0 l/m 2 min 0 min 0,0 UV-I 325 W/m 15,4 km/h (3 Bft)
10.03.2014 09:42 10,6 C 7,8 C 65 % 1025,2 hPa 0,0 l/m 2 min 0 min 0,0 UV-I 329 W/m 18,0 km/h (3 Bft)
10.03.2014 09:44 10,7 C 7,8 C 65 % 1025,1 hPa 0,0 l/m 2 min 0 min 0,0 UV-I 332 W/m 7,7 km/h (2 Bft)
10.03.2014 09:46 10,8 C 8,3 C 65 % 1025,1 hPa 0,0 l/m 2 min 0 min 0,0 UV-I 341 W/m 10,3 km/h (2 Bft)
10.03.2014 09:48 10,9 C 8,3 C 64 % 1025,1 hPa 0,0 l/m 2 min 0 min 0,0 UV-I 343 W/m 7,7 km/h (2 Bft)
10.03.2014 09:50 11,0 C 8,3 C 64 % 1025,1 hPa 0,0 l/m 2 min 0 min 0,0 UV-I 345 W/m 12,9 km/h (3 Bft)
10.03.2014 09:52 11,1 C 8,9 C 64 % 1025,0 hPa 0,0 l/m 2 min 0 min 0,0 UV-I 352 W/m 15,4 km/h (3 Bft)
10.03.2014 09:54 11,3 C 8,9 C 64 % 1025,0 hPa 0,0 l/m 2 min 0 min 0,0 UV-I 355 W/m 0,0 km/h (0 Bft)
10.03.2014 09:56 11,4 C 8,9 C 63 % 1025,0 hPa 0,0 l/m 2 min 0 min 0,0 UV-I 357 W/m 10,3 km/h (2 Bft)
10.03.2014 09:58 11,4 C 8,9 C 63 % 1024,9 hPa 0,0 l/m 2 min 0 min 0,0 UV-I 364 W/m 12,9 km/h (3 Bft)
10.03.2014 10:00 11,6 C 8,9 C 63 % 1024,9 hPa 0,0 l/m 2 min 0 min 0,0 UV-I 367 W/m 18,0 km/h (3 Bft)
10.03.2014 10:02 11,6 C 8,9 C 63 % 1024,9 hPa 0,0 l/m 2 min 0 min 0,0 UV-I 369 W/m 10,3 km/h (2 Bft)
10.03.2014 10:04 11,7 C 9,4 C 63 % 1024,8 hPa 0,0 l/m 2 min 0 min 0,0 UV-I 374 W/m 10,3 km/h (2 Bft)
10.03.2014 10:06 11,8 C 9,4 C 63 % 1024,8 hPa 0,0 l/m 2 min 0 min 0,0 UV-I 378 W/m 7,7 km/h (2 Bft)
10.03.2014 10:08 11,9 C 9,4 C 63 % 1024,8 hPa 0,0 l/m 2 min 0 min 0,0 UV-I 383 W/m 12,9 km/h (3 Bft)
10.03.2014 10:10 12,0 C 9,4 C 62 % 1024,8 hPa 0,0 l/m 2 min 0 min 0,5 UV-I 388 W/m 7,7 km/h (2 Bft)
10.03.2014 10:12 12,0 C 10,0 C 63 % 1024,8 hPa 0,0 l/m 2 min 0 min 0,5 UV-I 392 W/m 0,0 km/h (0 Bft)
10.03.2014 10:14 12,1 C 10,0 C 63 % 1024,8 hPa 0,0 l/m 2 min 0 min 0,5 UV-I 394 W/m 10,3 km/h (2 Bft)
10.03.2014 10:16 12,2 C 10,0 C 63 % 1024,8 hPa 0,0 l/m 2 min 0 min 0,5 UV-I 399 W/m 10,3 km/h (2 Bft)
10.03.2014 10:18 12,3 C 10,0 C 63 % 1024,8 hPa 0,0 l/m 2 min 0 min 0,5 UV-I 403 W/m 7,7 km/h (2 Bft)
10.03.2014 10:20 12,5 C 10,0 C 62 % 1024,8 hPa 0,0 l/m 2 min 0 min 0,6 UV-I 406 W/m 12,9 km/h (3 Bft)
10.03.2014 10:22 12,6 C 10,0 C 62 % 1024,7 hPa 0,0 l/m 2 min 0 min 0,6 UV-I 410 W/m 12,9 km/h (3 Bft)
10.03.2014 10:24 12,7 C 10,6 C 62 % 1024,7 hPa 0,0 l/m 2 min 0 min 0,6 UV-I 413 W/m 15,4 km/h (3 Bft)
10.03.2014 10:26 12,8 C 10,6 C 63 % 1024,7 hPa 0,0 l/m 2 min 0 min 0,6 UV-I 417 W/m 12,9 km/h (3 Bft)
10.03.2014 10:28 13,0 C 10,6 C 62 % 1024,7 hPa 0,0 l/m 2 min 0 min 0,6 UV-I 420 W/m 12,9 km/h (3 Bft)
10.03.2014 10:30 13,2 C 10,6 C 61 % 1024,6 hPa 0,0 l/m 2 min 0 min 0,6 UV-I 424 W/m 12,9 km/h (3 Bft)
10.03.2014 10:32 13,2 C 10,6 C 61 % 1024,6 hPa 0,0 l/m 2 min 0 min 0,7 UV-I 425 W/m 7,7 km/h (2 Bft)
10.03.2014 10:34 13,3 C 10,6 C 60 % 1024,6 hPa 0,0 l/m 2 min 0 min 0,7 UV-I 431 W/m 7,7 km/h (2 Bft)
10.03.2014 10:36 13,4 C 11,1 C 61 % 1024,7 hPa 0,0 l/m 2 min 0 min 0,7 UV-I 434 W/m 0,0 km/h (0 Bft)
10.03.2014 10:38 13,6 C 11,1 C 62 % 1024,6 hPa 0,0 l/m 2 min 0 min 0,7 UV-I 436 W/m 0,0 km/h (0 Bft)
10.03.2014 10:40 13,7 C 11,1 C 60 % 1024,6 hPa 0,0 l/m 2 min 0 min 0,8 UV-I 443 W/m 18,0 km/h (3 Bft)
10.03.2014 10:42 13,8 C 11,1 C 60 % 1024,5 hPa 0,0 l/m 2 min 0 min 0,8 UV-I 445 W/m 15,4 km/h (3 Bft)
10.03.2014 10:44 13,7 C 11,1 C 59 % 1024,6 hPa 0,0 l/m 2 min 0 min 0,8 UV-I 448 W/m 12,9 km/h (3 Bft)
10.03.2014 10:46 13,7 C 11,7 C 59 % 1024,5 hPa 0,0 l/m 2 min 0 min 0,8 UV-I 454 W/m 10,3 km/h (2 Bft)
10.03.2014 10:48 13,8 C 11,7 C 59 % 1024,5 hPa 0,0 l/m 2 min 0 min 0,8 UV-I 455 W/m 5,1 km/h (1 Bft)
10.03.2014 10:50 14,1 C 11,7 C 59 % 1024,5 hPa 0,0 l/m 2 min 0 min 0,8 UV-I 457 W/m 5,1 km/h (1 Bft)
10.03.2014 10:52 14,1 C 11,7 C 58 % 1024,6 hPa 0,0 l/m 2 min 0 min 0,8 UV-I 462 W/m 12,9 km/h (3 Bft)
10.03.2014 10:54 14,2 C 11,7 C 58 % 1024,6 hPa 0,0 l/m 2 min 0 min 0,9 UV-I 464 W/m 10,3 km/h (2 Bft)
10.03.2014 10:56 14,2 C 11,7 C 57 % 1024,6 hPa 0,0 l/m 2 min 0 min 0,9 UV-I 468 W/m 12,9 km/h (3 Bft)
10.03.2014 10:58 14,3 C 12,2 C 57 % 1024,6 hPa 0,0 l/m 2 min 0 min 0,9 UV-I 469 W/m 12,9 km/h (3 Bft)
10.03.2014 11:00 14,2 C 12,2 C 57 % 1024,6 hPa 0,0 l/m 2 min 0 min 0,9 UV-I 473 W/m 10,3 km/h (2 Bft)
10.03.2014 11:02 14,2 C 12,2 C 56 % 1024,6 hPa 0,0 l/m 2 min 0 min 0,9 UV-I 476 W/m 12,9 km/h (3 Bft)
10.03.2014 11:04 14,2 C 11,7 C 57 % 1024,6 hPa 0,0 l/m 2 min 0 min 1,0 UV-I 476 W/m 15,4 km/h (3 Bft)
10.03.2014 11:06 14,3 C 12,2 C 57 % 1024,6 hPa 0,0 l/m 2 min 0 min 1,0 UV-I 480 W/m 12,9 km/h (3 Bft)
10.03.2014 11:08 14,4 C 12,2 C 58 % 1024,5 hPa 0,0 l/m 2 min 0 min 1,0 UV-I 483 W/m 7,7 km/h (2 Bft)
10.03.2014 11:10 14,6 C 12,2 C 58 % 1024,5 hPa 0,0 l/m 2 min 0 min 1,0 UV-I 485 W/m 12,9 km/h (3 Bft)
10.03.2014 11:12 14,6 C 12,2 C 57 % 1024,4 hPa 0,0 l/m 2 min 0 min 1,0 UV-I 489 W/m 0,0 km/h (0 Bft)
10.03.2014 11:14 14,6 C 12,2 C 57 % 1024,4 hPa 0,0 l/m 2 min 0 min 1,0 UV-I 490 W/m 10,3 km/h (2 Bft)
10.03.2014 11:16 14,6 C 12,8 C 57 % 1024,5 hPa 0,0 l/m 2 min 0 min 1,1 UV-I 492 W/m 7,7 km/h (2 Bft)
10.03.2014 11:18 14,8 C 12,8 C 56 % 1024,4 hPa 0,0 l/m 2 min 0 min 1,1 UV-I 494 W/m 12,9 km/h (3 Bft)
10.03.2014 11:20 14,9 C 12,8 C 56 % 1024,4 hPa 0,0 l/m 2 min 0 min 1,1 UV-I 497 W/m 23,2 km/h (4 Bft)
10.03.2014 11:22 14,9 C 12,8 C 55 % 1024,4 hPa 0,0 l/m 2 min 0 min 1,1 UV-I 499 W/m 15,4 km/h (3 Bft)
10.03.2014 11:24 14,9 C 12,8 C 56 % 1024,5 hPa 0,0 l/m 2 min 0 min 1,1 UV-I 503 W/m 12,9 km/h (3 Bft)
10.03.2014 11:26 14,8 C 12,8 C 56 % 1024,4 hPa 0,0 l/m 2 min 0 min 1,1 UV-I 504 W/m 12,9 km/h (3 Bft)
10.03.2014 11:28 14,7 C 12,8 C 57 % 1024,4 hPa 0,0 l/m 2 min 0 min 1,1 UV-I 504 W/m 12,9 km/h (3 Bft)
10.03.2014 11:30 14,8 C 12,8 C 56 % 1024,4 hPa 0,0 l/m 2 min 0 min 1,1 UV-I 506 W/m 12,9 km/h (3 Bft)
10.03.2014 11:32 14,8 C 12,8 C 55 % 1024,4 hPa 0,0 l/m 2 min 0 min 1,2 UV-I 508 W/m 15,4 km/h (3 Bft)
10.03.2014 11:34 14,8 C 12,8 C 55 % 1024,4 hPa 0,0 l/m 2 min 0 min 1,2 UV-I 512 W/m 7,7 km/h (2 Bft)
10.03.2014 11:36 14,9 C 12,8 C 56 % 1024,4 hPa 0,0 l/m 2 min 0 min 1,2 UV-I 513 W/m 7,7 km/h (2 Bft)
10.03.2014 11:38 15,1 C 12,8 C 55 % 1024,4 hPa 0,0 l/m 2 min 0 min 1,2 UV-I 515 W/m 10,3 km/h (2 Bft)
10.03.2014 11:40 15,3 C 12,8 C 56 % 1024,4 hPa 0,0 l/m 2 min 0 min 1,2 UV-I 520 W/m 12,9 km/h (3 Bft)
10.03.2014 11:42 15,3 C 12,8 C 55 % 1024,4 hPa 0,0 l/m 2 min 0 min 1,2 UV-I 520 W/m 10,3 km/h (2 Bft)
10.03.2014 11:44 15,3 C 13,3 C 53 % 1024,4 hPa 0,0 l/m 2 min 0 min 1,2 UV-I 522 W/m 12,9 km/h (3 Bft)
10.03.2014 11:46 15,3 C 12,8 C 54 % 1024,4 hPa 0,0 l/m 2 min 0 min 1,2 UV-I 522 W/m 12,9 km/h (3 Bft)
10.03.2014 11:48 15,3 C 13,3 C 54 % 1024,4 hPa 0,0 l/m 2 min 0 min 1,1 UV-I 522 W/m 7,7 km/h (2 Bft)
10.03.2014 11:50 15,6 C 13,3 C 54 % 1024,4 hPa 0,0 l/m 2 min 0 min 1,0 UV-I 527 W/m 10,3 km/h (2 Bft)
10.03.2014 11:52 15,6 C 13,3 C 53 % 1024,4 hPa 0,0 l/m 2 min 0 min 0,9 UV-I 529 W/m 2,6 km/h (1 Bft)
10.03.2014 11:54 15,5 C 13,3 C 53 % 1024,4 hPa 0,0 l/m 2 min 0 min 0,8 UV-I 529 W/m 10,3 km/h (2 Bft)
10.03.2014 11:56 15,7 C 13,3 C 54 % 1024,4 hPa 0,0 l/m 2 min 0 min 0,7 UV-I 531 W/m 10,3 km/h (2 Bft)
10.03.2014 11:58 15,7 C 13,3 C 53 % 1024,4 hPa 0,0 l/m 2 min 0 min 0,6 UV-I 533 W/m 7,7 km/h (2 Bft)
10.03.2014 12:00 15,6 C 13,3 C 52 % 1024,4 hPa 0,0 l/m 2 min 0 min 0,6 UV-I 534 W/m 7,7 km/h (2 Bft)
10.03.2014 12:02 15,6 C 13,3 C 53 % 1024,4 hPa 0,0 l/m 2 min 0 min 0,6 UV-I 538 W/m 7,7 km/h (2 Bft)
10.03.2014 12:04 15,5 C 13,3 C 54 % 1024,4 hPa 0,0 l/m 2 min 0 min 0,6 UV-I 538 W/m 0,0 km/h (0 Bft)
10.03.2014 12:06 15,7 C 13,9 C 53 % 1024,4 hPa 0,0 l/m 2 min 0 min 0,6 UV-I 538 W/m 2,6 km/h (1 Bft)
10.03.2014 12:08 15,8 C 13,3 C 52 % 1024,4 hPa 0,0 l/m 2 min 0 min 0,6 UV-I 541 W/m 10,3 km/h (2 Bft)
10.03.2014 12:10 16,2 C 13,3 C 51 % 1024,4 hPa 0,0 l/m 2 min 0 min 0,6 UV-I 541 W/m 2,6 km/h (1 Bft)
10.03.2014 12:12 16,2 C 13,3 C 52 % 1024,4 hPa 0,0 l/m 2 min 0 min 0,6 UV-I 543 W/m 2,6 km/h (1 Bft)
10.03.2014 12:14 16,1 C 13,3 C 51 % 1024,4 hPa 0,0 l/m 2 min 0 min 0,6 UV-I 543 W/m 0,0 km/h (0 Bft)
10.03.2014 12:16 15,9 C 13,9 C 53 % 1024,4 hPa 0,0 l/m 2 min 0 min 0,6 UV-I 545 W/m 2,6 km/h (1 Bft)
10.03.2014 12:18 16,2 C 13,9 C 51 % 1024,4 hPa 0,0 l/m 2 min 0 min 0,6 UV-I 545 W/m 7,7 km/h (2 Bft)
10.03.2014 12:20 16,2 C 13,9 C 51 % 1024,4 hPa 0,0 l/m 2 min 0 min 0,6 UV-I 547 W/m 0,0 km/h (0 Bft)
10.03.2014 12:22 15,9 C 13,3 C 50 % 1024,4 hPa 0,0 l/m 2 min 0 min 0,6 UV-I 545 W/m 0,0 km/h (0 Bft)
10.03.2014 12:24 15,7 C 13,3 C 51 % 1024,4 hPa 0,0 l/m 2 min 0 min 0,6 UV-I 545 W/m 2,6 km/h (1 Bft)
10.03.2014 12:26 15,6 C 13,9 C 54 % 1024,4 hPa 0,0 l/m 2 min 0 min 0,6 UV-I 545 W/m 0,0 km/h (0 Bft)
10.03.2014 12:28 15,7 C 13,9 C 52 % 1024,3 hPa 0,0 l/m 2 min 0 min 0,6 UV-I 547 W/m 2,6 km/h (1 Bft)
10.03.2014 12:30 15,9 C 13,9 C 55 % 1024,4 hPa 0,0 l/m 2 min 0 min 0,6 UV-I 545 W/m 2,6 km/h (1 Bft)
10.03.2014 12:32 16,2 C 13,9 C 53 % 1024,3 hPa 0,0 l/m 2 min 0 min 0,6 UV-I 547 W/m 0,0 km/h (0 Bft)
10.03.2014 12:34 16,4 C 13,9 C 52 % 1024,4 hPa 0,0 l/m 2 min 0 min 0,6 UV-I 548 W/m 0,0 km/h (0 Bft)
10.03.2014 12:36 16,2 C 13,9 C 51 % 1024,4 hPa 0,0 l/m 2 min 0 min 0,6 UV-I 548 W/m 0,0 km/h (0 Bft)
10.03.2014 12:38 16,1 C 13,9 C 52 % 1024,3 hPa 0,0 l/m 2 min 0 min 0,7 UV-I 552 W/m 2,6 km/h (1 Bft)
10.03.2014 12:40 15,9 C 13,9 C 52 % 1024,3 hPa 0,0 l/m 2 min 0 min 0,8 UV-I 550 W/m 0,0 km/h (0 Bft)
10.03.2014 12:42 15,9 C 13,9 C 52 % 1024,3 hPa 0,0 l/m 2 min 0 min 0,8 UV-I 548 W/m 2,6 km/h (1 Bft)
10.03.2014 12:44 15,9 C 13,9 C 52 % 1024,3 hPa 0,0 l/m 2 min 0 min 1,0 UV-I 550 W/m 0,0 km/h (0 Bft)
10.03.2014 12:46 16,3 C 14,4 C 53 % 1024,3 hPa 0,0 l/m 2 min 0 min 1,1 UV-I 548 W/m 2,6 km/h (1 Bft)
10.03.2014 12:48 16,3 C 14,4 C 50 % 1024,3 hPa 0,0 l/m 2 min 0 min 1,2 UV-I 547 W/m 2,6 km/h (1 Bft)
10.03.2014 12:50 16,2 C 13,9 C 51 % 1024,3 hPa 0,0 l/m 2 min 0 min 1,3 UV-I 547 W/m 0,0 km/h (0 Bft)
10.03.2014 12:52 16,3 C 13,9 C 52 % 1024,2 hPa 0,0 l/m 2 min 0 min 1,3 UV-I 547 W/m 0,0 km/h (0 Bft)
10.03.2014 12:54 16,4 C 13,9 C 51 % 1024,2 hPa 0,0 l/m 2 min 0 min 1,3 UV-I 550 W/m 0,0 km/h (0 Bft)
10.03.2014 12:56 16,5 C 14,4 C 51 % 1024,3 hPa 0,0 l/m 2 min 0 min 1,3 UV-I 548 W/m 2,6 km/h (1 Bft)
10.03.2014 12:58 16,6 C 14,4 C 54 % 1024,3 hPa 0,0 l/m 2 min 0 min 1,3 UV-I 541 W/m 2,6 km/h (1 Bft)
10.03.2014 13:00 16,6 C 14,4 C 50 % 1024,2 hPa 0,0 l/m 2 min 0 min 1,3 UV-I 541 W/m 0,0 km/h (0 Bft)
10.03.2014 13:02 16,5 C 14,4 C 49 % 1024,2 hPa 0,0 l/m 2 min 0 min 1,3 UV-I 538 W/m 10,3 km/h (2 Bft)
10.03.2014 13:04 16,6 C 14,4 C 50 % 1024,1 hPa 0,0 l/m 2 min 0 min 1,3 UV-I 536 W/m 0,0 km/h (0 Bft)
10.03.2014 13:06 16,8 C 14,4 C 52 % 1024,1 hPa 0,0 l/m 2 min 0 min 1,3 UV-I 540 W/m 0,0 km/h (0 Bft)
10.03.2014 13:08 17,2 C 15,0 C 50 % 1024,0 hPa 0,0 l/m 2 min 0 min 1,3 UV-I 534 W/m 2,6 km/h (1 Bft)
10.03.2014 13:10 17,4 C 15,0 C 49 % 1024,1 hPa 0,0 l/m 2 min 0 min 1,3 UV-I 536 W/m 0,0 km/h (0 Bft)
10.03.2014 13:12 17,2 C 15,0 C 46 % 1024,1 hPa 0,0 l/m 2 min 0 min 1,3 UV-I 534 W/m 10,3 km/h (2 Bft)
10.03.2014 13:14 17,0 C 15,0 C 49 % 1024,0 hPa 0,0 l/m 2 min 0 min 1,3 UV-I 536 W/m 12,9 km/h (3 Bft)
10.03.2014 13:16 17,1 C 15,0 C 49 % 1024,0 hPa 0,0 l/m 2 min 0 min 1,3 UV-I 536 W/m 2,6 km/h (1 Bft)
10.03.2014 13:18 17,1 C 15,0 C 48 % 1023,9 hPa 0,0 l/m 2 min 0 min 1,3 UV-I 534 W/m 0,0 km/h (0 Bft)
10.03.2014 13:20 17,1 C 15,0 C 48 % 1023,9 hPa 0,0 l/m 2 min 0 min 1,3 UV-I 531 W/m 5,1 km/h (1 Bft)
10.03.2014 13:22 17,3 C 15,0 C 52 % 1023,9 hPa 0,0 l/m 2 min 0 min 1,3 UV-I 534 W/m 2,6 km/h (1 Bft)
10.03.2014 13:24 17,5 C 15,6 C 48 % 1023,8 hPa 0,0 l/m 2 min 0 min 1,3 UV-I 536 W/m 0,0 km/h (0 Bft)
10.03.2014 13:26 17,4 C 15,6 C 47 % 1023,7 hPa 0,0 l/m 2 min 0 min 1,3 UV-I 534 W/m 2,6 km/h (1 Bft)
10.03.2014 13:28 17,3 C 15,6 C 47 % 1023,7 hPa 0,0 l/m 2 min 0 min 1,3 UV-I 533 W/m 7,7 km/h (2 Bft)
10.03.2014 13:30 17,2 C 15,6 C 47 % 1023,7 hPa 0,0 l/m 2 min 0 min 1,3 UV-I 531 W/m 10,3 km/h (2 Bft)
10.03.2014 13:32 17,1 C 15,6 C 48 % 1023,7 hPa 0,0 l/m 2 min 0 min 1,3 UV-I 529 W/m 2,6 km/h (1 Bft)
10.03.2014 13:34 17,1 C 15,6 C 48 % 1023,6 hPa 0,0 l/m 2 min 0 min 1,3 UV-I 527 W/m 10,3 km/h (2 Bft)
10.03.2014 13:36 17,2 C 15,6 C 49 % 1023,6 hPa 0,0 l/m 2 min 0 min 1,2 UV-I 526 W/m 2,6 km/h (1 Bft)
10.03.2014 13:38 17,1 C 15,6 C 48 % 1023,5 hPa 0,0 l/m 2 min 0 min 1,2 UV-I 522 W/m 2,6 km/h (1 Bft)
10.03.2014 13:40 17,2 C 15,6 C 48 % 1023,5 hPa 0,0 l/m 2 min 0 min 1,2 UV-I 522 W/m 2,6 km/h (1 Bft)
10.03.2014 13:42 17,3 C 15,6 C 50 % 1023,5 hPa 0,0 l/m 2 min 0 min 1,2 UV-I 519 W/m 0,0 km/h (0 Bft)
10.03.2014 13:44 17,3 C 15,6 C 47 % 1023,5 hPa 0,0 l/m 2 min 0 min 1,2 UV-I 517 W/m 0,0 km/h (0 Bft)
10.03.2014 13:46 17,2 C 15,6 C 47 % 1023,5 hPa 0,0 l/m 2 min 0 min 1,2 UV-I 513 W/m 2,6 km/h (1 Bft)
10.03.2014 13:48 17,4 C 15,6 C 50 % 1023,5 hPa 0,0 l/m 2 min 0 min 1,2 UV-I 513 W/m 5,1 km/h (1 Bft)
10.03.2014 13:50 17,6 C 15,6 C 49 % 1023,4 hPa 0,0 l/m 2 min 0 min 1,2 UV-I 513 W/m 2,6 km/h (1 Bft)
10.03.2014 13:52 17,6 C 15,6 C 48 % 1023,4 hPa 0,0 l/m 2 min 0 min 1,2 UV-I 515 W/m 2,6 km/h (1 Bft)
10.03.2014 13:54 17,7 C 15,6 C 48 % 1023,4 hPa 0,0 l/m 2 min 0 min 1,2 UV-I 513 W/m 10,3 km/h (2 Bft)
10.03.2014 13:56 17,6 C 15,6 C 48 % 1023,4 hPa 0,0 l/m 2 min 0 min 1,2 UV-I 512 W/m 12,9 km/h (3 Bft)
10.03.2014 13:58 17,4 C 15,6 C 47 % 1023,4 hPa 0,0 l/m 2 min 0 min 1,2 UV-I 508 W/m 10,3 km/h (2 Bft)
10.03.2014 14:00 17,4 C 15,6 C 48 % 1023,4 hPa 0,0 l/m 2 min 0 min 1,1 UV-I 503 W/m 7,7 km/h (2 Bft)
10.03.2014 14:02 17,4 C 16,1 C 48 % 1023,5 hPa 0,0 l/m 2 min 0 min 1,1 UV-I 501 W/m 10,3 km/h (2 Bft)
10.03.2014 14:04 17,6 C 16,1 C 50 % 1023,4 hPa 0,0 l/m 2 min 0 min 1,1 UV-I 499 W/m 5,1 km/h (1 Bft)
10.03.2014 14:06 17,7 C 16,1 C 49 % 1023,4 hPa 0,0 l/m 2 min 0 min 1,1 UV-I 497 W/m 2,6 km/h (1 Bft)
10.03.2014 14:08 17,8 C 16,1 C 48 % 1023,4 hPa 0,0 l/m 2 min 0 min 1,1 UV-I 494 W/m 7,7 km/h (2 Bft)
10.03.2014 14:10 17,7 C 16,1 C 48 % 1023,5 hPa 0,0 l/m 2 min 0 min 1,1 UV-I 490 W/m 7,7 km/h (2 Bft)
10.03.2014 14:12 17,8 C 16,1 C 48 % 1023,5 hPa 0,0 l/m 2 min 0 min 1,0 UV-I 487 W/m 15,4 km/h (3 Bft)
10.03.2014 14:14 17,8 C 16,1 C 48 % 1023,5 hPa 0,0 l/m 2 min 0 min 1,0 UV-I 485 W/m 10,3 km/h (2 Bft)
10.03.2014 14:16 17,8 C 16,1 C 48 % 1023,5 hPa 0,0 l/m 2 min 0 min 1,0 UV-I 489 W/m 5,1 km/h (1 Bft)
10.03.2014 14:18 17,9 C 16,1 C 48 % 1023,4 hPa 0,0 l/m 2 min 0 min 1,0 UV-I 485 W/m 10,3 km/h (2 Bft)
10.03.2014 14:20 17,9 C 16,1 C 47 % 1023,4 hPa 0,0 l/m 2 min 0 min 1,0 UV-I 478 W/m 7,7 km/h (2 Bft)
10.03.2014 14:22 17,9 C 16,1 C 47 % 1023,4 hPa 0,0 l/m 2 min 0 min 1,0 UV-I 478 W/m 12,9 km/h (3 Bft)
10.03.2014 14:24 17,9 C 16,1 C 47 % 1023,3 hPa 0,0 l/m 2 min 0 min 1,0 UV-I 476 W/m 7,7 km/h (2 Bft)
10.03.2014 14:26 17,8 C 16,1 C 47 % 1023,4 hPa 0,0 l/m 2 min 0 min 1,0 UV-I 475 W/m 15,4 km/h (3 Bft)
10.03.2014 14:28 17,9 C 16,1 C 48 % 1023,3 hPa 0,0 l/m 2 min 0 min 0,9 UV-I 469 W/m 5,1 km/h (1 Bft)
10.03.2014 14:30 18,0 C 16,1 C 47 % 1023,4 hPa 0,0 l/m 2 min 0 min 0,9 UV-I 468 W/m 12,9 km/h (3 Bft)
10.03.2014 14:32 18,1 C 16,7 C 47 % 1023,4 hPa 0,0 l/m 2 min 0 min 0,9 UV-I 466 W/m 15,4 km/h (3 Bft)
10.03.2014 14:34 18,0 C 16,1 C 46 % 1023,4 hPa 0,0 l/m 2 min 0 min 0,9 UV-I 462 W/m 5,1 km/h (1 Bft)
10.03.2014 14:36 18,1 C 16,1 C 47 % 1023,3 hPa 0,0 l/m 2 min 0 min 0,9 UV-I 464 W/m 2,6 km/h (1 Bft)
10.03.2014 14:38 18,3 C 16,7 C 47 % 1023,3 hPa 0,0 l/m 2 min 0 min 0,9 UV-I 461 W/m 10,3 km/h (2 Bft)
10.03.2014 14:40 18,3 C 16,7 C 46 % 1023,2 hPa 0,0 l/m 2 min 0 min 0,8 UV-I 455 W/m 18,0 km/h (3 Bft)
10.03.2014 14:42 18,2 C 16,7 C 46 % 1023,3 hPa 0,0 l/m 2 min 0 min 0,8 UV-I 452 W/m 10,3 km/h (2 Bft)
10.03.2014 14:44 18,3 C 16,7 C 47 % 1023,2 hPa 0,0 l/m 2 min 0 min 0,8 UV-I 450 W/m 7,7 km/h (2 Bft)
10.03.2014 14:46 18,4 C 16,7 C 47 % 1023,3 hPa 0,0 l/m 2 min 0 min 0,8 UV-I 445 W/m 10,3 km/h (2 Bft)
10.03.2014 14:48 18,4 C 16,7 C 46 % 1023,3 hPa 0,0 l/m 2 min 0 min 0,8 UV-I 439 W/m 15,4 km/h (3 Bft)
10.03.2014 14:50 18,4 C 16,7 C 47 % 1023,3 hPa 0,0 l/m 2 min 0 min 0,8 UV-I 439 W/m 10,3 km/h (2 Bft)
10.03.2014 14:52 18,4 C 16,7 C 46 % 1023,3 hPa 0,0 l/m 2 min 0 min 0,7 UV-I 436 W/m 10,3 km/h (2 Bft)
10.03.2014 14:54 18,4 C 16,7 C 44 % 1023,3 hPa 0,0 l/m 2 min 0 min 0,7 UV-I 432 W/m 18,0 km/h (3 Bft)
10.03.2014 14:56 18,3 C 16,7 C 45 % 1023,4 hPa 0,0 l/m 2 min 0 min 0,7 UV-I 425 W/m 20,6 km/h (4 Bft)
10.03.2014 14:58 18,5 C 16,7 C 46 % 1023,3 hPa 0,0 l/m 2 min 0 min 0,7 UV-I 422 W/m 10,3 km/h (2 Bft)
10.03.2014 15:00 18,6 C 17,2 C 47 % 1023,3 hPa 0,0 l/m 2 min 0 min 0,7 UV-I 418 W/m 15,4 km/h (3 Bft)
10.03.2014 15:02 18,6 C 16,7 C 47 % 1023,3 hPa 0,0 l/m 2 min 0 min 0,7 UV-I 415 W/m 20,6 km/h (4 Bft)
10.03.2014 15:04 18,6 C 17,2 C 47 % 1023,3 hPa 0,0 l/m 2 min 0 min 0,6 UV-I 417 W/m 7,7 km/h (2 Bft)
10.03.2014 15:06 18,6 C 16,7 C 46 % 1023,3 hPa 0,0 l/m 2 min 0 min 0,6 UV-I 411 W/m 18,0 km/h (3 Bft)
10.03.2014 15:08 18,7 C 17,2 C 46 % 1023,3 hPa 0,0 l/m 2 min 0 min 0,6 UV-I 404 W/m 12,9 km/h (3 Bft)
10.03.2014 15:10 18,7 C 17,2 C 45 % 1023,3 hPa 0,0 l/m 2 min 0 min 0,6 UV-I 403 W/m 15,4 km/h (3 Bft)
10.03.2014 15:12 18,7 C 17,2 C 45 % 1023,3 hPa 0,0 l/m 2 min 0 min 0,6 UV-I 401 W/m 18,0 km/h (3 Bft)
10.03.2014 15:14 18,8 C 17,2 C 45 % 1023,3 hPa 0,0 l/m 2 min 0 min 0,6 UV-I 394 W/m 12,9 km/h (3 Bft)
10.03.2014 15:16 18,8 C 17,2 C 45 % 1023,3 hPa 0,0 l/m 2 min 0 min 0,5 UV-I 392 W/m 20,6 km/h (4 Bft)
10.03.2014 15:18 18,8 C 17,2 C 44 % 1023,3 hPa 0,0 l/m 2 min 0 min 0,5 UV-I 387 W/m 10,3 km/h (2 Bft)
10.03.2014 15:20 18,8 C 17,2 C 44 % 1023,4 hPa 0,0 l/m 2 min 0 min 0,5 UV-I 385 W/m 12,9 km/h (3 Bft)
10.03.2014 15:22 18,9 C 17,2 C 44 % 1023,4 hPa 0,0 l/m 2 min 0 min 0,5 UV-I 380 W/m 18,0 km/h (3 Bft)
10.03.2014 15:24 18,9 C 17,2 C 44 % 1023,4 hPa 0,0 l/m 2 min 0 min 0,5 UV-I 378 W/m 12,9 km/h (3 Bft)
10.03.2014 15:26 18,9 C 17,2 C 44 % 1023,4 hPa 0,0 l/m 2 min 0 min 0,0 UV-I 371 W/m 20,6 km/h (4 Bft)
10.03.2014 15:28 18,8 C 17,2 C 43 % 1023,4 hPa 0,0 l/m 2 min 0 min 0,0 UV-I 369 W/m 18,0 km/h (3 Bft)
10.03.2014 15:30 18,8 C 17,2 C 44 % 1023,4 hPa 0,0 l/m 2 min 0 min 0,0 UV-I 374 W/m 12,9 km/h (3 Bft)
10.03.2014 15:32 18,9 C 17,2 C 44 % 1023,3 hPa 0,0 l/m 2 min 0 min 0,0 UV-I 376 W/m 10,3 km/h (2 Bft)
10.03.2014 15:34 18,9 C 17,2 C 44 % 1023,3 hPa 0,0 l/m 2 min 0 min 0,0 UV-I 369 W/m 15,4 km/h (3 Bft)
10.03.2014 15:36 18,9 C 17,2 C 43 % 1023,3 hPa 0,0 l/m 2 min 0 min 0,0 UV-I 366 W/m 18,0 km/h (3 Bft)
10.03.2014 15:38 18,9 C 17,2 C 44 % 1023,3 hPa 0,0 l/m 2 min 0 min 0,0 UV-I 357 W/m 12,9 km/h (3 Bft)
10.03.2014 15:40 18,8 C 17,2 C 43 % 1023,2 hPa 0,0 l/m 2 min 0 min 0,0 UV-I 355 W/m 12,9 km/h (3 Bft)
10.03.2014 15:42 18,8 C 17,2 C 43 % 1023,2 hPa 0,0 l/m 2 min 0 min 0,0 UV-I 346 W/m 15,4 km/h (3 Bft)
10.03.2014 15:44 18,8 C 17,2 C 44 % 1023,2 hPa 0,0 l/m 2 min 0 min 0,0 UV-I 346 W/m 15,4 km/h (3 Bft)
10.03.2014 15:46 18,8 C 17,2 C 44 % 1023,3 hPa 0,0 l/m 2 min 0 min 0,0 UV-I 338 W/m 15,4 km/h (3 Bft)
10.03.2014 15:48 18,8 C 17,2 C 44 % 1023,3 hPa 0,0 l/m 2 min 0 min 0,0 UV-I 330 W/m 15,4 km/h (3 Bft)
10.03.2014 15:50 18,8 C 17,2 C 44 % 1023,3 hPa 0,0 l/m 2 min 0 min 0,0 UV-I 327 W/m 7,7 km/h (2 Bft)
10.03.2014 15:52 18,8 C 17,2 C 45 % 1023,4 hPa 0,0 l/m 2 min 0 min 0,0 UV-I 322 W/m 10,3 km/h (2 Bft)
10.03.2014 15:54 18,9 C 17,2 C 46 % 1023,4 hPa 0,0 l/m 2 min 0 min 0,0 UV-I 318 W/m 10,3 km/h (2 Bft)
10.03.2014 15:56 18,9 C 17,2 C 44 % 1023,4 hPa 0,0 l/m 2 min 0 min 0,0 UV-I 311 W/m 18,0 km/h (3 Bft)
10.03.2014 15:58 18,8 C 16,7 C 44 % 1023,4 hPa 0,0 l/m 2 min 0 min 0,0 UV-I 311 W/m 15,4 km/h (3 Bft)
10.03.2014 16:00 18,8 C 16,7 C 45 % 1023,3 hPa 0,0 l/m 2 min 0 min 0,0 UV-I 304 W/m 10,3 km/h (2 Bft)
10.03.2014 16:02 18,8 C 16,7 C 45 % 1023,3 hPa 0,0 l/m 2 min 0 min 0,0 UV-I 301 W/m 10,3 km/h (2 Bft)
10.03.2014 16:04 18,8 C 17,2 C 45 % 1023,3 hPa 0,0 l/m 2 min 0 min 0,0 UV-I 297 W/m 18,0 km/h (3 Bft)
10.03.2014 16:06 18,9 C 17,2 C 45 % 1023,2 hPa 0,0 l/m 2 min 0 min 0,0 UV-I 294 W/m 12,9 km/h (3 Bft)
10.03.2014 16:08 18,8 C 17,2 C 45 % 1023,3 hPa 0,0 l/m 2 min 0 min 0,0 UV-I 290 W/m 12,9 km/h (3 Bft)
10.03.2014 16:10 18,8 C 17,2 C 46 % 1023,2 hPa 0,0 l/m 2 min 0 min 0,0 UV-I 283 W/m 12,9 km/h (3 Bft)
10.03.2014 16:12 18,8 C 17,2 C 45 % 1023,3 hPa 0,0 l/m 2 min 0 min 0,0 UV-I 276 W/m 18,0 km/h (3 Bft)
10.03.2014 16:14 18,7 C 16,7 C 45 % 1023,3 hPa 0,0 l/m 2 min 0 min 0,0 UV-I 272 W/m 15,4 km/h (3 Bft)
10.03.2014 16:16 18,7 C 16,7 C 45 % 1023,2 hPa 0,0 l/m 2 min 0 min 0,0 UV-I 269 W/m 12,9 km/h (3 Bft)
10.03.2014 16:18 18,7 C 16,7 C 46 % 1023,2 hPa 0,0 l/m 2 min 0 min 0,0 UV-I 262 W/m 10,3 km/h (2 Bft)
10.03.2014 16:20 18,7 C 16,7 C 45 % 1023,2 hPa 0,0 l/m 2 min 0 min 0,0 UV-I 255 W/m 18,0 km/h (3 Bft)
10.03.2014 16:22 18,7 C 16,7 C 45 % 1023,3 hPa 0,0 l/m 2 min 0 min 0,0 UV-I 251 W/m 20,6 km/h (4 Bft)
10.03.2014 16:24 18,6 C 16,7 C 45 % 1023,3 hPa 0,0 l/m 2 min 0 min 0,0 UV-I 248 W/m 20,6 km/h (4 Bft)
10.03.2014 16:26 18,7 C 16,7 C 46 % 1023,2 hPa 0,0 l/m 2 min 0 min 0,0 UV-I 246 W/m 12,9 km/h (3 Bft)
10.03.2014 16:28 18,6 C 16,7 C 46 % 1023,2 hPa 0,0 l/m 2 min 0 min 0,0 UV-I 243 W/m 15,4 km/h (3 Bft)
10.03.2014 16:30 18,6 C 16,7 C 45 % 1023,2 hPa 0,0 l/m 2 min 0 min 0,0 UV-I 234 W/m 18,0 km/h (3 Bft)
10.03.2014 16:32 18,5 C 16,7 C 45 % 1023,2 hPa 0,0 l/m 2 min 0 min 0,0 UV-I 229 W/m 20,6 km/h (4 Bft)
10.03.2014 16:34 18,4 C 16,7 C 46 % 1023,3 hPa 0,0 l/m 2 min 0 min 0,0 UV-I 227 W/m 20,6 km/h (4 Bft)
10.03.2014 16:36 18,5 C 16,7 C 47 % 1023,3 hPa 0,0 l/m 2 min 0 min 0,0 UV-I 221 W/m 15,4 km/h (3 Bft)
10.03.2014 16:38 18,4 C 16,7 C 47 % 1023,3 hPa 0,0 l/m 2 min 0 min 0,0 UV-I 214 W/m 18,0 km/h (3 Bft)
10.03.2014 16:40 18,4 C 16,7 C 48 % 1023,3 hPa 0,0 l/m 2 min 0 min 0,0 UV-I 211 W/m 15,4 km/h (3 Bft)
10.03.2014 16:42 18,4 C 16,7 C 48 % 1023,3 hPa 0,0 l/m 2 min 0 min 0,0 UV-I 206 W/m 10,3 km/h (2 Bft)
10.03.2014 16:44 18,4 C 16,1 C 48 % 1023,4 hPa 0,0 l/m 2 min 0 min 0,0 UV-I 199 W/m 18,0 km/h (3 Bft)
10.03.2014 16:46 18,3 C 16,7 C 48 % 1023,3 hPa 0,0 l/m 2 min 0 min 0,0 UV-I 197 W/m 10,3 km/h (2 Bft)
10.03.2014 16:48 18,3 C 16,7 C 48 % 1023,4 hPa 0,0 l/m 2 min 0 min 0,0 UV-I 193 W/m 18,0 km/h (3 Bft)
10.03.2014 16:50 18,2 C 16,1 C 48 % 1023,4 hPa 0,0 l/m 2 min 0 min 0,0 UV-I 188 W/m 20,6 km/h (4 Bft)
10.03.2014 16:52 18,2 C 16,1 C 48 % 1023,4 hPa 0,0 l/m 2 min 0 min 0,0 UV-I 181 W/m 18,0 km/h (3 Bft)
10.03.2014 16:54 18,2 C 16,1 C 48 % 1023,4 hPa 0,0 l/m 2 min 0 min 0,0 UV-I 172 W/m 12,9 km/h (3 Bft)
10.03.2014 16:56 18,1 C 16,1 C 48 % 1023,4 hPa 0,0 l/m 2 min 0 min 0,0 UV-I 169 W/m 15,4 km/h (3 Bft)
10.03.2014 16:58 18,1 C 16,1 C 48 % 1023,4 hPa 0,0 l/m 2 min 0 min 0,0 UV-I 165 W/m 12,9 km/h (3 Bft)
10.03.2014 17:00 18,1 C 16,1 C 49 % 1023,4 hPa 0,0 l/m 2 min 0 min 0,0 UV-I 160 W/m 12,9 km/h (3 Bft)
10.03.2014 17:02 18,1 C 16,1 C 49 % 1023,3 hPa 0,0 l/m 2 min 0 min 0,0 UV-I 155 W/m 18,0 km/h (3 Bft)
10.03.2014 17:04 18,1 C 16,1 C 49 % 1023,4 hPa 0,0 l/m 2 min 0 min 0,0 UV-I 149 W/m 15,4 km/h (3 Bft)
10.03.2014 17:06 18,0 C 16,1 C 49 % 1023,3 hPa 0,0 l/m 2 min 0 min 0,0 UV-I 144 W/m 15,4 km/h (3 Bft)
10.03.2014 17:08 17,9 C 16,1 C 50 % 1023,4 hPa 0,0 l/m 2 min 0 min 0,0 UV-I 139 W/m 18,0 km/h (3 Bft)
10.03.2014 17:10 17,9 C 15,6 C 50 % 1023,3 hPa 0,0 l/m 2 min 0 min 0,0 UV-I 134 W/m 12,9 km/h (3 Bft)
10.03.2014 17:12 17,8 C 15,6 C 50 % 1023,4 hPa 0,0 l/m 2 min 0 min 0,0 UV-I 128 W/m 15,4 km/h (3 Bft)
10.03.2014 17:14 17,8 C 15,6 C 50 % 1023,4 hPa 0,0 l/m 2 min 0 min 0,0 UV-I 125 W/m 12,9 km/h (3 Bft)
10.03.2014 17:16 17,8 C 15,6 C 50 % 1023,4 hPa 0,0 l/m 2 min 0 min 0,0 UV-I 121 W/m 10,3 km/h (2 Bft)
10.03.2014 17:18 17,7 C 15,6 C 50 % 1023,3 hPa 0,0 l/m 2 min 0 min 0,0 UV-I 114 W/m 12,9 km/h (3 Bft)
10.03.2014 17:20 17,7 C 15,6 C 50 % 1023,4 hPa 0,0 l/m 2 min 0 min 0,0 UV-I 111 W/m 15,4 km/h (3 Bft)
10.03.2014 17:22 17,7 C 15,6 C 51 % 1023,4 hPa 0,0 l/m 2 min 0 min 0,0 UV-I 107 W/m 10,3 km/h (2 Bft)
10.03.2014 17:24 17,6 C 15,6 C 51 % 1023,4 hPa 0,0 l/m 2 min 0 min 0,0 UV-I 100 W/m 12,9 km/h (3 Bft)
10.03.2014 17:26 17,6 C 15,6 C 51 % 1023,5 hPa 0,0 l/m 2 min 0 min 0,0 UV-I 95 W/m 15,4 km/h (3 Bft)
10.03.2014 17:28 17,6 C 15,6 C 51 % 1023,5 hPa 0,0 l/m 2 min 0 min 0,0 UV-I 91 W/m 10,3 km/h (2 Bft)
10.03.2014 17:30 17,5 C 15,6 C 51 % 1023,4 hPa 0,0 l/m 2 min 0 min 0,0 UV-I 81 W/m 5,1 km/h (1 Bft)
10.03.2014 17:32 17,4 C 15,6 C 52 % 1023,4 hPa 0,0 l/m 0 min 0 min 0,0 UV-I 76 W/m 7,7 km/h (2 Bft)
10.03.2014 17:34 17,4 C 15,0 C 52 % 1023,5 hPa 0,0 l/m 2 min 0 min 0,0 UV-I 76 W/m 2,6 km/h (1 Bft)
10.03.2014 17:36 17,3 C 15,0 C 52 % 1023,4 hPa 0,0 l/m 0 min 0 min 0,0 UV-I 70 W/m 0,0 km/h (0 Bft)
10.03.2014 17:38 17,3 C 15,0 C 52 % 1023,4 hPa 0,0 l/m 0 min 0 min 0,0 UV-I 67 W/m 2,6 km/h (1 Bft)
10.03.2014 17:40 17,3 C 15,0 C 52 % 1023,4 hPa 0,0 l/m 0 min 0 min 0,0 UV-I 62 W/m 0,0 km/h (0 Bft)
10.03.2014 17:42 17,2 C 15,0 C 52 % 1023,5 hPa 0,0 l/m 0 min 0 min 0,0 UV-I 58 W/m 0,0 km/h (0 Bft)
10.03.2014 17:44 17,2 C 15,0 C 52 % 1023,5 hPa 0,0 l/m 0 min 0 min 0,0 UV-I 54 W/m 2,6 km/h (1 Bft)
10.03.2014 17:46 17,1 C 14,4 C 52 % 1023,5 hPa 0,0 l/m 0 min 0 min 0,0 UV-I 47 W/m 0,0 km/h (0 Bft)
10.03.2014 17:48 17,1 C 14,4 C 52 % 1023,5 hPa 0,0 l/m 0 min 0 min 0,0 UV-I 47 W/m 0,0 km/h (0 Bft)
10.03.2014 17:50 17,1 C 14,4 C 53 % 1023,5 hPa 0,0 l/m 0 min 0 min 0,0 UV-I 46 W/m 0,0 km/h (0 Bft)
10.03.2014 17:52 17,0 C 13,9 C 53 % 1023,5 hPa 0,0 l/m 0 min 0 min 0,0 UV-I 35 W/m 0,0 km/h (0 Bft)
10.03.2014 17:54 16,9 C 13,9 C 53 % 1023,5 hPa 0,0 l/m 0 min 0 min 0,0 UV-I 30 W/m 0,0 km/h (0 Bft)
10.03.2014 17:56 16,8 C 13,9 C 53 % 1023,5 hPa 0,0 l/m 0 min 0 min 0,0 UV-I 28 W/m 0,0 km/h (0 Bft)
10.03.2014 17:58 16,7 C 13,9 C 54 % 1023,5 hPa 0,0 l/m 0 min 0 min 0,0 UV-I 25 W/m 0,0 km/h (0 Bft)
10.03.2014 18:00 16,6 C 13,3 C 54 % 1023,5 hPa 0,0 l/m 0 min 0 min 0,0 UV-I 23 W/m 0,0 km/h (0 Bft)
10.03.2014 18:02 16,5 C 12,8 C 55 % 1023,5 hPa 0,0 l/m 0 min 0 min 0,0 UV-I 21 W/m 0,0 km/h (0 Bft)
10.03.2014 18:04 16,3 C 12,2 C 56 % 1023,5 hPa 0,0 l/m 0 min 0 min 0,0 UV-I 19 W/m 0,0 km/h (0 Bft)
10.03.2014 18:06 16,1 C 12,2 C 57 % 1023,5 hPa 0,0 l/m 0 min 0 min 0,0 UV-I 16 W/m 0,0 km/h (0 Bft)
10.03.2014 18:08 15,8 C 11,7 C 58 % 1023,5 hPa 0,0 l/m 0 min 0 min 0,0 UV-I 16 W/m 0,0 km/h (0 Bft)
10.03.2014 18:10 15,6 C 11,7 C 59 % 1023,5 hPa 0,0 l/m 0 min 0 min 0,0 UV-I 14 W/m 0,0 km/h (0 Bft)
10.03.2014 18:12 15,3 C 11,7 C 59 % 1023,5 hPa 0,0 l/m 0 min 0 min 0,0 UV-I 12 W/m 0,0 km/h (0 Bft)
10.03.2014 18:14 15,1 C 11,1 C 60 % 1023,5 hPa 0,0 l/m 0 min 0 min 0,0 UV-I 12 W/m 0,0 km/h (0 Bft)
10.03.2014 18:16 14,8 C 11,1 C 61 % 1023,6 hPa 0,0 l/m 0 min 0 min 0,0 UV-I 9 W/m 0,0 km/h (0 Bft)
10.03.2014 18:18 14,7 C 11,1 C 61 % 1023,6 hPa 0,0 l/m 0 min 0 min 0,0 UV-I 9 W/m 0,0 km/h (0 Bft)
10.03.2014 18:20 14,5 C 10,6 C 62 % 1023,6 hPa 0,0 l/m 0 min 0 min 0,0 UV-I 7 W/m 0,0 km/h (0 Bft)
10.03.2014 18:22 14,3 C 10,6 C 63 % 1023,6 hPa 0,0 l/m 0 min 0 min 0,0 UV-I 7 W/m 0,0 km/h (0 Bft)
10.03.2014 18:24 14,2 C 10,6 C 63 % 1023,6 hPa 0,0 l/m 0 min 0 min 0,0 UV-I 7 W/m 0,0 km/h (0 Bft)
10.03.2014 18:26 14,1 C 10,6 C 64 % 1023,7 hPa 0,0 l/m 0 min 0 min 0,0 UV-I 5 W/m 0,0 km/h (0 Bft)
10.03.2014 18:28 13,9 C 10,0 C 64 % 1023,7 hPa 0,0 l/m 0 min 0 min 0,0 UV-I 5 W/m 0,0 km/h (0 Bft)
10.03.2014 18:30 13,7 C 10,0 C 65 % 1023,7 hPa 0,0 l/m 0 min 0 min 0,0 UV-I 5 W/m 0,0 km/h (0 Bft)
10.03.2014 18:32 13,6 C 10,0 C 66 % 1023,7 hPa 0,0 l/m 0 min 0 min 0,0 UV-I 0 W/m 0,0 km/h (0 Bft)
10.03.2014 18:34 13,4 C 10,0 C 66 % 1023,7 hPa 0,0 l/m 0 min 0 min 0,0 UV-I 0 W/m 0,0 km/h (0 Bft)
10.03.2014 18:36 13,3 C 10,0 C 66 % 1023,7 hPa 0,0 l/m 0 min 0 min 0,0 UV-I 0 W/m 0,0 km/h (0 Bft)
10.03.2014 18:38 13,2 C 10,0 C 66 % 1023,8 hPa 0,0 l/m 0 min 0 min 0,0 UV-I 0 W/m 0,0 km/h (0 Bft)
10.03.2014 18:40 13,2 C 9,4 C 67 % 1023,8 hPa 0,0 l/m 0 min 0 min 0,0 UV-I 0 W/m 0,0 km/h (0 Bft)
10.03.2014 18:42 13,0 C 9,4 C 67 % 1023,8 hPa 0,0 l/m 0 min 0 min 0,0 UV-I 0 W/m 0,0 km/h (0 Bft)
10.03.2014 18:44 12,9 C 9,4 C 67 % 1023,9 hPa 0,0 l/m 0 min 0 min 0,0 UV-I 0 W/m 0,0 km/h (0 Bft)
10.03.2014 18:46 12,8 C 9,4 C 67 % 1023,9 hPa 0,0 l/m 0 min 0 min 0,0 UV-I 0 W/m 0,0 km/h (0 Bft)
10.03.2014 18:48 12,6 C 9,4 C 68 % 1024,0 hPa 0,0 l/m 0 min 0 min 0,0 UV-I 0 W/m 0,0 km/h (0 Bft)
10.03.2014 18:50 12,5 C 9,4 C 68 % 1024,0 hPa 0,0 l/m 0 min 0 min 0,0 UV-I 0 W/m 0,0 km/h (0 Bft)
10.03.2014 18:52 12,4 C 8,9 C 68 % 1024,0 hPa 0,0 l/m 0 min 0 min 0,0 UV-I 0 W/m 0,0 km/h (0 Bft)
10.03.2014 18:54 12,3 C 8,9 C 68 % 1024,1 hPa 0,0 l/m 0 min 0 min 0,0 UV-I 0 W/m 0,0 km/h (0 Bft)
10.03.2014 18:56 12,2 C 8,9 C 68 % 1024,1 hPa 0,0 l/m 0 min 0 min 0,0 UV-I 0 W/m 0,0 km/h (0 Bft)
10.03.2014 18:58 12,2 C 8,9 C 68 % 1024,1 hPa 0,0 l/m 0 min 0 min 0,0 UV-I 0 W/m 0,0 km/h (0 Bft)
10.03.2014 19:00 12,2 C 8,9 C 71 % 1024,2 hPa 0,0 l/m 0 min 0 min 0,0 UV-I 0 W/m 0,0 km/h (0 Bft)
10.03.2014 19:02 12,2 C 8,3 C 68 % 1024,3 hPa 0,0 l/m 0 min 0 min 0,0 UV-I 0 W/m 0,0 km/h (0 Bft)
10.03.2014 19:04 12,1 C 8,3 C 68 % 1024,2 hPa 0,0 l/m 0 min 0 min 0,0 UV-I 0 W/m 0,0 km/h (0 Bft)
10.03.2014 19:06 11,9 C 8,3 C 70 % 1024,2 hPa 0,0 l/m 0 min 0 min 0,0 UV-I 0 W/m 0,0 km/h (0 Bft)
10.03.2014 19:08 11,8 C 8,3 C 70 % 1024,3 hPa 0,0 l/m 0 min 0 min 0,0 UV-I 0 W/m 0,0 km/h (0 Bft)
10.03.2014 19:10 11,8 C 8,3 C 70 % 1024,3 hPa 0,0 l/m 0 min 0 min 0,0 UV-I 0 W/m 0,0 km/h (0 Bft)
10.03.2014 19:12 11,8 C 8,3 C 70 % 1024,3 hPa 0,0 l/m 0 min 0 min 0,0 UV-I 0 W/m 0,0 km/h (0 Bft)
10.03.2014 19:14 11,7 C 8,3 C 70 % 1024,3 hPa 0,0 l/m 0 min 0 min 0,0 UV-I 0 W/m 0,0 km/h (0 Bft)
10.03.2014 19:16 11,7 C 8,3 C 70 % 1024,4 hPa 0,0 l/m 0 min 0 min 0,0 UV-I 0 W/m 0,0 km/h (0 Bft)
10.03.2014 19:18 11,6 C 8,3 C 70 % 1024,4 hPa 0,0 l/m 0 min 0 min 0,0 UV-I 0 W/m 0,0 km/h (0 Bft)
10.03.2014 19:20 11,7 C 7,8 C 70 % 1024,4 hPa 0,0 l/m 0 min 0 min 0,0 UV-I 0 W/m 0,0 km/h (0 Bft)
10.03.2014 19:22 11,7 C 7,8 C 70 % 1024,5 hPa 0,0 l/m 0 min 0 min 0,0 UV-I 0 W/m 0,0 km/h (0 Bft)
10.03.2014 19:24 11,6 C 7,8 C 70 % 1024,5 hPa 0,0 l/m 0 min 0 min 0,0 UV-I 0 W/m 0,0 km/h (0 Bft)
10.03.2014 19:26 11,6 C 7,8 C 70 % 1024,5 hPa 0,0 l/m 0 min 0 min 0,0 UV-I 0 W/m 0,0 km/h (0 Bft)
10.03.2014 19:28 11,5 C 7,8 C 70 % 1024,6 hPa 0,0 l/m 0 min 0 min 0,0 UV-I 0 W/m 0,0 km/h (0 Bft)
10.03.2014 19:30 11,4 C 7,8 C 70 % 1024,6 hPa 0,0 l/m 0 min 0 min 0,0 UV-I 0 W/m 0,0 km/h (0 Bft)
10.03.2014 19:32 11,4 C 7,8 C 70 % 1024,6 hPa 0,0 l/m 0 min 0 min 0,0 UV-I 0 W/m 0,0 km/h (0 Bft)
10.03.2014 19:34 11,4 C 7,8 C 70 % 1024,7 hPa 0,0 l/m 0 min 0 min 0,0 UV-I 0 W/m 0,0 km/h (0 Bft)
10.03.2014 19:36 11,4 C 7,8 C 70 % 1024,7 hPa 0,0 l/m 0 min 0 min 0,0 UV-I 0 W/m 0,0 km/h (0 Bft)
10.03.2014 19:38 11,4 C 7,8 C 70 % 1024,7 hPa 0,0 l/m 0 min 0 min 0,0 UV-I 0 W/m 0,0 km/h (0 Bft)
10.03.2014 19:40 11,3 C 7,8 C 70 % 1024,7 hPa 0,0 l/m 0 min 0 min 0,0 UV-I 0 W/m 0,0 km/h (0 Bft)
10.03.2014 19:42 11,2 C 7,8 C 70 % 1024,7 hPa 0,0 l/m 0 min 0 min 0,0 UV-I 0 W/m 0,0 km/h (0 Bft)
10.03.2014 19:44 11,1 C 7,2 C 71 % 1024,7 hPa 0,0 l/m 0 min 0 min 0,0 UV-I 0 W/m 0,0 km/h (0 Bft)
10.03.2014 19:46 10,9 C 7,2 C 71 % 1024,7 hPa 0,0 l/m 0 min 0 min 0,0 UV-I 0 W/m 0,0 km/h (0 Bft)
10.03.2014 19:48 10,8 C 7,2 C 72 % 1024,8 hPa 0,0 l/m 0 min 0 min 0,0 UV-I 0 W/m 0,0 km/h (0 Bft)
10.03.2014 19:50 10,8 C 7,2 C 72 % 1024,8 hPa 0,0 l/m 0 min 0 min 0,0 UV-I 0 W/m 0,0 km/h (0 Bft)
10.03.2014 19:52 10,7 C 7,2 C 72 % 1024,9 hPa 0,0 l/m 0 min 0 min 0,0 UV-I 0 W/m 0,0 km/h (0 Bft)
10.03.2014 19:54 10,7 C 7,2 C 72 % 1024,8 hPa 0,0 l/m 0 min 0 min 0,0 UV-I 0 W/m 0,0 km/h (0 Bft)
10.03.2014 19:56 10,6 C 7,2 C 72 % 1024,8 hPa 0,0 l/m 0 min 0 min 0,0 UV-I 0 W/m 0,0 km/h (0 Bft)
10.03.2014 19:58 10,5 C 7,2 C 72 % 1024,8 hPa 0,0 l/m 0 min 0 min 0,0 UV-I 0 W/m 0,0 km/h (0 Bft)
10.03.2014 20:00 10,4 C 7,2 C 73 % 1024,9 hPa 0,0 l/m 0 min 0 min 0,0 UV-I 0 W/m 0,0 km/h (0 Bft)
10.03.2014 20:02 10,3 C 7,2 C 73 % 1024,8 hPa 0,0 l/m 0 min 0 min 0,0 UV-I 0 W/m 0,0 km/h (0 Bft)
10.03.2014 20:06 10,1 C 6,7 C 73 % 1024,8 hPa 0,0 l/m 0 min 0 min 0,0 UV-I 0 W/m 0,0 km/h (0 Bft)
10.03.2014 20:08 9,9 C 6,7 C 73 % 1024,8 hPa 0,0 l/m 0 min 0 min 0,0 UV-I 0 W/m 0,0 km/h (0 Bft)
10.03.2014 20:10 9,9 C 6,7 C 73 % 1024,9 hPa 0,0 l/m 0 min 0 min 0,0 UV-I 0 W/m 0,0 km/h (0 Bft)
10.03.2014 20:12 9,8 C 6,7 C 74 % 1024,9 hPa 0,0 l/m 0 min 0 min 0,0 UV-I 0 W/m 0,0 km/h (0 Bft)
10.03.2014 20:14 9,7 C 6,7 C 75 % 1024,9 hPa 0,0 l/m 0 min 0 min 0,0 UV-I 0 W/m 0,0 km/h (0 Bft)
10.03.2014 20:16 9,7 C 6,7 C 75 % 1024,9 hPa 0,0 l/m 0 min 0 min 0,0 UV-I 0 W/m 0,0 km/h (0 Bft)
10.03.2014 20:18 9,7 C 6,7 C 75 % 1024,9 hPa 0,0 l/m 0 min 0 min 0,0 UV-I 0 W/m 0,0 km/h (0 Bft)
10.03.2014 20:20 9,7 C 6,7 C 75 % 1024,9 hPa 0,0 l/m 0 min 0 min 0,0 UV-I 0 W/m 0,0 km/h (0 Bft)
10.03.2014 20:22 9,7 C 6,7 C 75 % 1024,9 hPa 0,0 l/m 0 min 0 min 0,0 UV-I 0 W/m 0,0 km/h (0 Bft)
10.03.2014 20:24 9,8 C 6,1 C 75 % 1025,0 hPa 0,0 l/m 0 min 0 min 0,0 UV-I 0 W/m 0,0 km/h (0 Bft)
10.03.2014 20:26 9,8 C 6,1 C 75 % 1025,0 hPa 0,0 l/m 0 min 0 min 0,0 UV-I 0 W/m 0,0 km/h (0 Bft)
10.03.2014 20:28 9,7 C 6,1 C 75 % 1025,0 hPa 0,0 l/m 0 min 0 min 0,0 UV-I 0 W/m 0,0 km/h (0 Bft)
10.03.2014 20:30 9,7 C 6,1 C 75 % 1025,0 hPa 0,0 l/m 0 min 0 min 0,0 UV-I 0 W/m 0,0 km/h (0 Bft)
10.03.2014 20:32 9,7 C 6,1 C 75 % 1025,0 hPa 0,0 l/m 0 min 0 min 0,0 UV-I 0 W/m 0,0 km/h (0 Bft)
10.03.2014 20:34 9,6 C 6,1 C 75 % 1025,0 hPa 0,0 l/m 0 min 0 min 0,0 UV-I 0 W/m 0,0 km/h (0 Bft)
10.03.2014 20:36 9,6 C 6,1 C 75 % 1025,1 hPa 0,0 l/m 0 min 0 min 0,0 UV-I 0 W/m 0,0 km/h (0 Bft)
10.03.2014 20:38 9,7 C 6,1 C 75 % 1025,1 hPa 0,0 l/m 0 min 0 min 0,0 UV-I 0 W/m 0,0 km/h (0 Bft)
10.03.2014 20:40 9,9 C 6,1 C 75 % 1025,1 hPa 0,0 l/m 0 min 0 min 0,0 UV-I 0 W/m 0,0 km/h (0 Bft)
10.03.2014 20:42 9,9 C 6,1 C 74 % 1025,1 hPa 0,0 l/m 0 min 0 min 0,0 UV-I 0 W/m 0,0 km/h (0 Bft)
10.03.2014 20:44 9,8 C 6,1 C 74 % 1025,1 hPa 0,0 l/m 0 min 0 min 0,0 UV-I 0 W/m 0,0 km/h (0 Bft)
10.03.2014 20:46 9,7 C 6,1 C 75 % 1025,0 hPa 0,0 l/m 0 min 0 min 0,0 UV-I 0 W/m 0,0 km/h (0 Bft)
10.03.2014 20:48 9,6 C 6,1 C 75 % 1025,1 hPa 0,0 l/m 0 min 0 min 0,0 UV-I 0 W/m 0,0 km/h (0 Bft)
10.03.2014 20:50 9,4 C 6,1 C 76 % 1025,0 hPa 0,0 l/m 0 min 0 min 0,0 UV-I 0 W/m 0,0 km/h (0 Bft)
10.03.2014 20:52 9,4 C 6,1 C 76 % 1025,1 hPa 0,0 l/m 0 min 0 min 0,0 UV-I 0 W/m 0,0 km/h (0 Bft)
10.03.2014 20:54 9,3 C 6,1 C 76 % 1025,1 hPa 0,0 l/m 0 min 0 min 0,0 UV-I 0 W/m 0,0 km/h (0 Bft)
10.03.2014 20:56 9,3 C 5,6 C 77 % 1025,1 hPa 0,0 l/m 0 min 0 min 0,0 UV-I 0 W/m 0,0 km/h (0 Bft)
10.03.2014 20:58 9,3 C 6,1 C 77 % 1025,1 hPa 0,0 l/m 0 min 0 min 0,0 UV-I 0 W/m 0,0 km/h (0 Bft)
10.03.2014 21:00 9,2 C 5,6 C 77 % 1025,1 hPa 0,0 l/m 0 min 0 min 0,0 UV-I 0 W/m 0,0 km/h (0 Bft)
10.03.2014 21:02 9,2 C 5,6 C 77 % 1025,1 hPa 0,0 l/m 0 min 0 min 0,0 UV-I 0 W/m 0,0 km/h (0 Bft)
10.03.2014 21:04 9,2 C 5,6 C 77 % 1025,1 hPa 0,0 l/m 0 min 0 min 0,0 UV-I 0 W/m 0,0 km/h (0 Bft)
10.03.2014 21:06 9,3 C 5,6 C 77 % 1025,1 hPa 0,0 l/m 0 min 0 min 0,0 UV-I 0 W/m 2,6 km/h (1 Bft)
10.03.2014 21:08 9,6 C 5,6 C 78 % 1025,1 hPa 0,0 l/m 0 min 0 min 0,0 UV-I 0 W/m 0,0 km/h (0 Bft)
10.03.2014 21:10 9,8 C 6,1 C 77 % 1025,1 hPa 0,0 l/m 0 min 0 min 0,0 UV-I 0 W/m 0,0 km/h (0 Bft)
10.03.2014 21:12 9,8 C 6,1 C 76 % 1025,2 hPa 0,0 l/m 0 min 0 min 0,0 UV-I 0 W/m 0,0 km/h (0 Bft)
10.03.2014 21:14 9,8 C 5,6 C 76 % 1025,2 hPa 0,0 l/m 0 min 0 min 0,0 UV-I 0 W/m 0,0 km/h (0 Bft)
10.03.2014 21:16 9,8 C 5,6 C 76 % 1025,2 hPa 0,0 l/m 0 min 0 min 0,0 UV-I 0 W/m 0,0 km/h (0 Bft)
10.03.2014 21:18 9,8 C 5,6 C 76 % 1025,1 hPa 0,0 l/m 0 min 0 min 0,0 UV-I 0 W/m 0,0 km/h (0 Bft)
10.03.2014 21:20 9,7 C 5,6 C 76 % 1025,2 hPa 0,0 l/m 0 min 0 min 0,0 UV-I 0 W/m 0,0 km/h (0 Bft)
10.03.2014 21:22 9,7 C 5,6 C 76 % 1025,2 hPa 0,0 l/m 0 min 0 min 0,0 UV-I 0 W/m 0,0 km/h (0 Bft)
10.03.2014 21:24 9,7 C 6,1 C 77 % 1025,2 hPa 0,0 l/m 0 min 0 min 0,0 UV-I 0 W/m 0,0 km/h (0 Bft)
10.03.2014 21:26 9,8 C 6,1 C 77 % 1025,2 hPa 0,0 l/m 0 min 0 min 0,0 UV-I 0 W/m 0,0 km/h (0 Bft)
10.03.2014 21:28 9,8 C 6,1 C 77 % 1025,2 hPa 0,0 l/m 0 min 0 min 0,0 UV-I 0 W/m 0,0 km/h (0 Bft)
10.03.2014 21:30 9,7 C 6,1 C 77 % 1025,2 hPa 0,0 l/m 0 min 0 min 0,0 UV-I 0 W/m 0,0 km/h (0 Bft)
10.03.2014 21:32 9,7 C 5,6 C 77 % 1025,2 hPa 0,0 l/m 0 min 0 min 0,0 UV-I 0 W/m 0,0 km/h (0 Bft)
10.03.2014 21:34 9,6 C 5,6 C 77 % 1025,3 hPa 0,0 l/m 0 min 0 min 0,0 UV-I 0 W/m 0,0 km/h (0 Bft)
10.03.2014 21:36 9,5 C 5,6 C 77 % 1025,2 hPa 0,0 l/m 0 min 0 min 0,0 UV-I 0 W/m 2,6 km/h (1 Bft)
10.03.2014 21:38 9,7 C 6,7 C 78 % 1025,2 hPa 0,0 l/m 0 min 0 min 0,0 UV-I 0 W/m 2,6 km/h (1 Bft)
10.03.2014 21:40 9,9 C 7,2 C 78 % 1025,2 hPa 0,0 l/m 0 min 0 min 0,0 UV-I 0 W/m 5,1 km/h (1 Bft)
10.03.2014 21:42 10,2 C 7,2 C 77 % 1025,3 hPa 0,0 l/m 0 min 0 min 0,0 UV-I 0 W/m 10,3 km/h (2 Bft)
10.03.2014 21:44 10,3 C 7,8 C 77 % 1025,3 hPa 0,0 l/m 0 min 0 min 0,0 UV-I 0 W/m 7,7 km/h (2 Bft)
10.03.2014 21:46 10,6 C 8,3 C 76 % 1025,3 hPa 0,0 l/m 0 min 0 min 0,0 UV-I 0 W/m 2,6 km/h (1 Bft)
10.03.2014 21:48 10,7 C 8,3 C 76 % 1025,3 hPa 0,0 l/m 0 min 0 min 0,0 UV-I 0 W/m 10,3 km/h (2 Bft)
10.03.2014 21:50 10,9 C 8,9 C 75 % 1025,3 hPa 0,0 l/m 0 min 0 min 0,0 UV-I 0 W/m 10,3 km/h (2 Bft)
10.03.2014 21:52 10,9 C 8,9 C 75 % 1025,3 hPa 0,0 l/m 0 min 0 min 0,0 UV-I 0 W/m 10,3 km/h (2 Bft)
10.03.2014 21:54 11,0 C 8,9 C 75 % 1025,3 hPa 0,0 l/m 0 min 0 min 0,0 UV-I 0 W/m 10,3 km/h (2 Bft)
10.03.2014 21:56 11,1 C 8,9 C 75 % 1025,3 hPa 0,0 l/m 0 min 0 min 0,0 UV-I 0 W/m 10,3 km/h (2 Bft)
10.03.2014 21:58 11,1 C 8,9 C 75 % 1025,3 hPa 0,0 l/m 0 min 0 min 0,0 UV-I 0 W/m 2,6 km/h (1 Bft)
10.03.2014 22:00 11,1 C 8,9 C 75 % 1025,3 hPa 0,0 l/m 0 min 0 min 0,0 UV-I 0 W/m 10,3 km/h (2 Bft)
10.03.2014 22:02 11,0 C 8,9 C 75 % 1025,3 hPa 0,0 l/m 0 min 0 min 0,0 UV-I 0 W/m 2,6 km/h (1 Bft)
10.03.2014 22:04 10,9 C 8,9 C 75 % 1025,4 hPa 0,0 l/m 0 min 0 min 0,0 UV-I 0 W/m 7,7 km/h (2 Bft)
10.03.2014 22:06 10,9 C 8,9 C 76 % 1025,4 hPa 0,0 l/m 0 min 0 min 0,0 UV-I 0 W/m 15,4 km/h (3 Bft)
10.03.2014 22:08 10,9 C 8,9 C 76 % 1025,4 hPa 0,0 l/m 0 min 0 min 0,0 UV-I 0 W/m 10,3 km/h (2 Bft)
10.03.2014 22:10 10,9 C 8,9 C 76 % 1025,4 hPa 0,0 l/m 0 min 0 min 0,0 UV-I 0 W/m 7,7 km/h (2 Bft)
10.03.2014 22:12 10,8 C 8,9 C 76 % 1025,5 hPa 0,0 l/m 0 min 0 min 0,0 UV-I 0 W/m 7,7 km/h (2 Bft)
10.03.2014 22:14 10,7 C 8,9 C 77 % 1025,6 hPa 0,0 l/m 0 min 0 min 0,0 UV-I 0 W/m 0,0 km/h (0 Bft)
10.03.2014 22:16 10,7 C 8,9 C 77 % 1025,6 hPa 0,0 l/m 0 min 0 min 0,0 UV-I 0 W/m 5,1 km/h (1 Bft)
10.03.2014 22:18 10,6 C 8,9 C 78 % 1025,6 hPa 0,0 l/m 0 min 0 min 0,0 UV-I 0 W/m 7,7 km/h (2 Bft)
10.03.2014 22:20 10,6 C 8,9 C 78 % 1025,7 hPa 0,0 l/m 0 min 0 min 0,0 UV-I 0 W/m 15,4 km/h (3 Bft)
10.03.2014 22:22 10,5 C 8,9 C 78 % 1025,7 hPa 0,0 l/m 0 min 0 min 0,0 UV-I 0 W/m 7,7 km/h (2 Bft)
10.03.2014 22:24 10,4 C 8,9 C 79 % 1025,8 hPa 0,0 l/m 0 min 0 min 0,0 UV-I 0 W/m 0,0 km/h (0 Bft)
10.03.2014 22:26 10,4 C 8,9 C 79 % 1025,8 hPa 0,0 l/m 0 min 0 min 0,0 UV-I 0 W/m 7,7 km/h (2 Bft)
10.03.2014 22:28 10,4 C 8,3 C 80 % 1025,8 hPa 0,0 l/m 0 min 0 min 0,0 UV-I 0 W/m 7,7 km/h (2 Bft)
10.03.2014 22:30 10,3 C 8,3 C 80 % 1025,8 hPa 0,0 l/m 0 min 0 min 0,0 UV-I 0 W/m 7,7 km/h (2 Bft)
10.03.2014 22:32 10,3 C 8,3 C 80 % 1025,7 hPa 0,0 l/m 0 min 0 min 0,0 UV-I 0 W/m 5,1 km/h (1 Bft)
10.03.2014 22:34 10,2 C 8,3 C 81 % 1025,8 hPa 0,0 l/m 0 min 0 min 0,0 UV-I 0 W/m 7,7 km/h (2 Bft)
10.03.2014 22:36 10,2 C 8,3 C 81 % 1025,8 hPa 0,0 l/m 0 min 0 min 0,0 UV-I 0 W/m 7,7 km/h (2 Bft)
10.03.2014 22:38 10,2 C 8,3 C 81 % 1025,9 hPa 0,0 l/m 0 min 0 min 0,0 UV-I 0 W/m 7,7 km/h (2 Bft)
10.03.2014 22:40 10,2 C 8,3 C 81 % 1025,9 hPa 0,0 l/m 0 min 0 min 0,0 UV-I 0 W/m 12,9 km/h (3 Bft)
10.03.2014 22:42 10,2 C 8,3 C 81 % 1025,9 hPa 0,0 l/m 0 min 0 min 0,0 UV-I 0 W/m 10,3 km/h (2 Bft)
10.03.2014 22:44 10,2 C 8,3 C 81 % 1025,9 hPa 0,0 l/m 0 min 0 min 0,0 UV-I 0 W/m 7,7 km/h (2 Bft)
10.03.2014 22:46 10,1 C 8,3 C 81 % 1025,9 hPa 0,0 l/m 0 min 0 min 0,0 UV-I 0 W/m 0,0 km/h (0 Bft)
10.03.2014 22:48 10,1 C 8,3 C 81 % 1025,9 hPa 0,0 l/m 0 min 0 min 0,0 UV-I 0 W/m 2,6 km/h (1 Bft)
10.03.2014 22:50 10,1 C 8,3 C 82 % 1025,9 hPa 0,0 l/m 0 min 0 min 0,0 UV-I 0 W/m 7,7 km/h (2 Bft)
10.03.2014 22:52 10,1 C 8,3 C 82 % 1025,9 hPa 0,0 l/m 0 min 0 min 0,0 UV-I 0 W/m 12,9 km/h (3 Bft)
10.03.2014 22:54 10,1 C 8,3 C 82 % 1026,0 hPa 0,0 l/m 0 min 0 min 0,0 UV-I 0 W/m 10,3 km/h (2 Bft)
10.03.2014 22:56 10,1 C 8,3 C 82 % 1025,9 hPa 0,0 l/m 0 min 0 min 0,0 UV-I 0 W/m 15,4 km/h (3 Bft)
10.03.2014 22:58 10,1 C 8,3 C 81 % 1026,0 hPa 0,0 l/m 0 min 0 min 0,0 UV-I 0 W/m 12,9 km/h (3 Bft)
10.03.2014 23:00 10,1 C 8,3 C 81 % 1026,0 hPa 0,0 l/m 0 min 0 min 0,0 UV-I 0 W/m 7,7 km/h (2 Bft)
10.03.2014 23:02 10,1 C 8,3 C 81 % 1026,0 hPa 0,0 l/m 0 min 0 min 0,0 UV-I 0 W/m 10,3 km/h (2 Bft)
10.03.2014 23:04 10,1 C 8,3 C 81 % 1026,0 hPa 0,0 l/m 0 min 0 min 0,0 UV-I 0 W/m 15,4 km/h (3 Bft)
10.03.2014 23:06 10,1 C 8,3 C 81 % 1026,0 hPa 0,0 l/m 0 min 0 min 0,0 UV-I 0 W/m 12,9 km/h (3 Bft)
10.03.2014 23:08 10,1 C 8,3 C 81 % 1026,1 hPa 0,0 l/m 0 min 0 min 0,0 UV-I 0 W/m 10,3 km/h (2 Bft)
10.03.2014 23:10 10,1 C 8,3 C 81 % 1026,1 hPa 0,0 l/m 0 min 0 min 0,0 UV-I 0 W/m 10,3 km/h (2 Bft)
10.03.2014 23:12 10,0 C 8,3 C 81 % 1026,1 hPa 0,0 l/m 0 min 0 min 0,0 UV-I 0 W/m 12,9 km/h (3 Bft)
10.03.2014 23:14 10,0 C 8,3 C 81 % 1026,1 hPa 0,0 l/m 0 min 0 min 0,0 UV-I 0 W/m 10,3 km/h (2 Bft)
10.03.2014 23:16 10,0 C 8,3 C 81 % 1026,1 hPa 0,0 l/m 0 min 0 min 0,0 UV-I 0 W/m 5,1 km/h (1 Bft)
10.03.2014 23:18 9,9 C 8,3 C 82 % 1026,1 hPa 0,0 l/m 0 min 0 min 0,0 UV-I 0 W/m 12,9 km/h (3 Bft)
10.03.2014 23:20 9,9 C 8,3 C 82 % 1026,1 hPa 0,0 l/m 0 min 0 min 0,0 UV-I 0 W/m 12,9 km/h (3 Bft)
10.03.2014 23:22 10,0 C 8,3 C 82 % 1026,0 hPa 0,0 l/m 0 min 0 min 0,0 UV-I 0 W/m 15,4 km/h (3 Bft)
10.03.2014 23:24 10,0 C 8,3 C 82 % 1026,1 hPa 0,0 l/m 0 min 0 min 0,0 UV-I 0 W/m 10,3 km/h (2 Bft)
10.03.2014 23:26 9,9 C 8,3 C 82 % 1026,1 hPa 0,0 l/m 0 min 0 min 0,0 UV-I 0 W/m 12,9 km/h (3 Bft)
10.03.2014 23:28 9,9 C 8,3 C 82 % 1026,1 hPa 0,0 l/m 0 min 0 min 0,0 UV-I 0 W/m 12,9 km/h (3 Bft)
10.03.2014 23:30 9,9 C 8,3 C 82 % 1026,1 hPa 0,0 l/m 0 min 0 min 0,0 UV-I 0 W/m 12,9 km/h (3 Bft)
10.03.2014 23:32 9,9 C 8,3 C 82 % 1026,0 hPa 0,0 l/m 0 min 0 min 0,0 UV-I 0 W/m 10,3 km/h (2 Bft)
10.03.2014 23:34 9,9 C 8,3 C 82 % 1026,1 hPa 0,0 l/m 0 min 0 min 0,0 UV-I 0 W/m 12,9 km/h (3 Bft)
10.03.2014 23:36 9,9 C 8,3 C 82 % 1026,1 hPa 0,0 l/m 0 min 0 min 0,0 UV-I 0 W/m 10,3 km/h (2 Bft)
10.03.2014 23:38 9,8 C 8,3 C 82 % 1026,1 hPa 0,0 l/m 0 min 0 min 0,0 UV-I 0 W/m 5,1 km/h (1 Bft)
10.03.2014 23:40 9,8 C 8,3 C 82 % 1026,1 hPa 0,0 l/m 0 min 0 min 0,0 UV-I 0 W/m 15,4 km/h (3 Bft)
10.03.2014 23:42 9,8 C 8,3 C 82 % 1026,2 hPa 0,0 l/m 0 min 0 min 0,0 UV-I 0 W/m 7,7 km/h (2 Bft)
10.03.2014 23:44 9,7 C 7,8 C 82 % 1026,2 hPa 0,0 l/m 0 min 0 min 0,0 UV-I 0 W/m 0,0 km/h (0 Bft)
10.03.2014 23:46 9,7 C 7,8 C 83 % 1026,2 hPa 0,0 l/m 0 min 0 min 0,0 UV-I 0 W/m 10,3 km/h (2 Bft)
10.03.2014 23:48 9,6 C 7,8 C 83 % 1026,3 hPa 0,0 l/m 0 min 0 min 0,0 UV-I 0 W/m 10,3 km/h (2 Bft)
10.03.2014 23:50 9,6 C 7,8 C 83 % 1026,3 hPa 0,0 l/m 0 min 0 min 0,0 UV-I 0 W/m 7,7 km/h (2 Bft)
10.03.2014 23:52 9,5 C 7,8 C 83 % 1026,3 hPa 0,0 l/m 0 min 0 min 0,0 UV-I 0 W/m 2,6 km/h (1 Bft)
10.03.2014 23:54 9,4 C 7,8 C 83 % 1026,4 hPa 0,0 l/m 0 min 0 min 0,0 UV-I 0 W/m 7,7 km/h (2 Bft)
10.03.2014 23:56 9,4 C 7,8 C 83 % 1026,4 hPa 0,0 l/m 0 min 0 min 0,0 UV-I 0 W/m 7,7 km/h (2 Bft)
10.03.2014 23:58 9,4 C 7,8 C 84 % 1026,3 hPa 0,0 l/m 0 min 0 min 0,0 UV-I 0 W/m 2,6 km/h (1 Bft)
_ Min-Zeit 07:34 06:24 15:28 14:40 - - - - - 03:04
Minimum _ 2,2 C 0,6 C 43 % 1023,2 hPa - - - - - 0,0 km/h (0 Bft)
_ Max-Zeit 15:22 15:00 07:30 23:54 00:00 08:02 00:00 12:50 12:38 11:20
Maximum _ 18,9 C 17,2 C 89 % 1026,4 hPa 0,0 l/m 2 min 0 min 1,3 UV-I 552 W/m 23,2 km/h
S (4 Bft)
Durchschnitt _ 11,0 C 8,6 C 67 % 1024,8 hPa #0,0 l/m #9:30 h #0 min. 0,9 UV-I 314 W/m 6,2 km/h (2 Bft)
© 2014 W. Hausmann